| time (UTC) | temp F | wind direction | speed MPH | gust MPH | rain 1hr in | rain 24hr in | rain mn in | humidity % | barometer mb |
| 20260506043727 | 67 | 220 | 2.0 | 4.0 | 0.00 | 0.00 | 0.00 | 67 | 1011.1 |
| 20260506043623 | 67 | 203 | 3.0 | 5.0 | 0.00 | 0.00 | 0.00 | 67 | 1011.0 |
| 20260506043518 | 67 | 188 | 4.0 | 5.0 | 0.00 | 0.00 | 0.00 | 67 | 1010.9 |
| 20260506043430 | 67 | 243 | 4.0 | 6.0 | 0.00 | 0.00 | 0.00 | 67 | 1011.0 |
| 20260506043326 | 67 | 192 | 2.0 | 3.0 | 0.00 | 0.00 | 0.00 | 67 | 1011.0 |
| 20260506043222 | 67 | 185 | 2.0 | 4.0 | 0.00 | 0.00 | 0.00 | 67 | 1011.0 |
| 20260506043137 | 67 | 192 | 5.0 | 5.0 | 0.00 | 0.00 | 0.00 | 67 | 1010.9 |
| 20260506043029 | 67 | 202 | 2.0 | 3.0 | 0.00 | 0.00 | 0.00 | 67 | 1010.9 |
| 20260506042925 | 67 | 211 | 4.0 | 6.0 | 0.00 | 0.00 | 0.00 | 67 | 1010.9 |
| 20260506042820 | 67 | 123 | 1.0 | 2.0 | 0.00 | 0.00 | 0.00 | 67 | 1011.0 |
| 20260506042736 | 67 | 204 | 1.0 | 3.0 | 0.00 | 0.00 | 0.00 | 67 | 1011.0 |
| 20260506042627 | 67 | 201 | 1.0 | 3.0 | 0.00 | 0.00 | 0.00 | 67 | 1011.0 |
| 20260506042523 | 67 | 208 | 3.0 | 4.0 | 0.00 | 0.00 | 0.00 | 67 | 1010.9 |
| 20260506042419 | 67 | 201 | 3.0 | 6.0 | 0.00 | 0.00 | 0.00 | 66 | 1010.9 |
| 20260506042330 | 67 | 203 | 4.0 | 6.0 | 0.00 | 0.00 | 0.00 | 66 | 1011.0 |
| 20260506042226 | 67 | 202 | 2.0 | 4.0 | 0.00 | 0.00 | 0.00 | 66 | 1010.8 |
| 20260506042122 | 67 | 215 | 2.0 | 6.0 | 0.00 | 0.00 | 0.00 | 66 | 1010.9 |
| 20260506042017 | 67 | 203 | 4.0 | 7.0 | 0.00 | 0.00 | 0.00 | 66 | 1011.1 |
| 20260506041929 | 67 | 215 | 3.0 | 5.0 | 0.00 | 0.00 | 0.00 | 66 | 1010.8 |
| 20260506041824 | 67 | 201 | 3.0 | 5.0 | 0.00 | 0.00 | 0.00 | 66 | 1010.9 |
| 20260506041720 | 67 | 198 | 2.0 | 4.0 | 0.00 | 0.00 | 0.00 | 66 | 1010.7 |
| 20260506041616 | 67 | 216 | 3.0 | 4.0 | 0.00 | 0.00 | 0.00 | 66 | 1010.9 |
| 20260506041527 | 67 | 227 | 4.0 | 6.0 | 0.00 | 0.00 | 0.00 | 65 | 1010.8 |
| 20260506041423 | 67 | 206 | 3.0 | 11.0 | 0.00 | 0.00 | 0.00 | 65 | 1010.9 |
| 20260506041319 | 67 | 194 | 4.0 | 10.0 | 0.00 | 0.00 | 0.00 | 66 | 1010.7 |
| 20260506041230 | 67 | 213 | 4.0 | 6.0 | 0.00 | 0.00 | 0.00 | 66 | 1010.9 |
| 20260506041126 | 67 | 208 | 2.0 | 5.0 | 0.00 | 0.00 | 0.00 | 66 | 1010.8 |
| 20260506041021 | 68 | 211 | 4.0 | 5.0 | 0.00 | 0.00 | 0.00 | 65 | 1010.9 |
| 20260506040917 | 68 | 202 | 1.0 | 3.0 | 0.00 | 0.00 | 0.00 | 65 | 1011.1 |
| 20260506040829 | 68 | 220 | 3.0 | 6.0 | 0.00 | 0.00 | 0.00 | 65 | 1010.9 |
| 20260506040724 | 68 | 202 | 4.0 | 7.0 | 0.00 | 0.00 | 0.00 | 65 | 1011.0 |
| 20260506040620 | 68 | 195 | 3.0 | 7.0 | 0.00 | 0.00 | 0.00 | 65 | 1010.9 |
| 20260506040555 | 68 | 206 | 5.0 | 7.0 | 0.00 | 0.00 | 0.00 | 65 | 1011.0 |
| 20260506040427 | 68 | 246 | 4.0 | 5.0 | 0.00 | 0.00 | 0.00 | 64 | 1010.9 |
| 20260506040322 | 68 | 211 | 4.0 | 6.0 | 0.00 | 0.00 | 0.00 | 64 | 1011.0 |
| 20260506040218 | 68 | 223 | 4.0 | 6.0 | 0.00 | 0.00 | 0.00 | 64 | 1010.9 |
| 20260506040130 | 68 | 219 | 3.0 | 5.0 | 0.00 | 0.00 | 0.00 | 64 | 1010.8 |
| 20260506040025 | 68 | 186 | 2.0 | 4.0 | 0.00 | 0.00 | 0.00 | 64 | 1010.8 |
| 20260506035941 | 68 | 209 | 3.0 | 8.0 | 0.00 | 0.00 | 0.00 | 64 | 1010.9 |
| 20260506035817 | 68 | 203 | 6.0 | 9.0 | 0.00 | 0.00 | 0.00 | 64 | 1010.9 |
| 20260506035728 | 68 | 205 | 2.0 | 4.0 | 0.00 | 0.00 | 0.00 | 64 | 1011.0 |
| 20260506035624 | 68 | 208 | 4.0 | 6.0 | 0.00 | 0.00 | 0.00 | 64 | 1010.8 |
| 20260506035520 | 68 | 201 | 8.0 | 11.0 | 0.00 | 0.00 | 0.00 | 64 | 1010.7 |
| 20260506035415 | 68 | 212 | 5.0 | 8.0 | 0.00 | 0.00 | 0.00 | 64 | 1010.8 |
| 20260506035347 | 68 | 196 | 4.0 | 7.0 | 0.00 | 0.00 | 0.00 | 64 | 1011.0 |
| 20260506035223 | 68 | 227 | 4.0 | 8.0 | 0.00 | 0.00 | 0.00 | 64 | 1010.8 |
| 20260506035138 | 68 | 238 | 2.0 | 4.0 | 0.00 | 0.00 | 0.00 | 64 | 1010.9 |
| 20260506035030 | 68 | 204 | 4.0 | 6.0 | 0.00 | 0.00 | 0.00 | 64 | 1010.8 |
| 20260506034926 | 68 | 219 | 5.0 | 6.0 | 0.00 | 0.00 | 0.00 | 64 | 1010.7 |
| 20260506034841 | 68 | 207 | 4.0 | 6.0 | 0.00 | 0.00 | 0.00 | 64 | 1010.8 |
| 20260506034716 | 68 | 217 | 3.0 | 5.0 | 0.00 | 0.00 | 0.00 | 64 | 1010.7 |
| 20260506034628 | 68 | 203 | 3.0 | 6.0 | 0.00 | 0.00 | 0.00 | 64 | 1010.8 |
| 20260506034524 | 68 | 203 | 4.0 | 5.0 | 0.00 | 0.00 | 0.00 | 64 | 1010.9 |
| 20260506034419 | 68 | 215 | 3.0 | 5.0 | 0.00 | 0.00 | 0.00 | 63 | 1011.1 |
| 20260506034331 | 68 | 217 | 2.0 | 4.0 | 0.00 | 0.00 | 0.00 | 63 | 1011.0 |
| 20260506034246 | 68 | 213 | 3.0 | 6.0 | 0.00 | 0.00 | 0.00 | 63 | 1010.9 |
| 20260506034122 | 68 | 211 | 4.0 | 4.0 | 0.00 | 0.00 | 0.00 | 63 | 1010.9 |
| 20260506034018 | 68 | 211 | 3.0 | 8.0 | 0.00 | 0.00 | 0.00 | 63 | 1010.9 |
| 20260506033929 | 68 | 213 | 6.0 | 9.0 | 0.00 | 0.00 | 0.00 | 63 | 1010.8 |
| 20260506033825 | 68 | 208 | 4.0 | 8.0 | 0.00 | 0.00 | 0.00 | 63 | 1011.1 |
| 20260506033720 | 68 | 210 | 3.0 | 5.0 | 0.00 | 0.00 | 0.00 | 63 | 1010.9 |
| 20260506033616 | 68 | 219 | 6.0 | 10.0 | 0.00 | 0.00 | 0.00 | 63 | 1010.9 |
| 20260506033608 | 68 | 208 | 3.0 | 6.0 | 0.00 | 0.00 | 0.00 | 63 | 1011.1 |
| 20260506033443 | 68 | 208 | 4.0 | 6.0 | 0.00 | 0.00 | 0.00 | 63 | 1011.0 |
| 20260506033319 | 68 | 209 | 5.0 | 6.0 | 0.00 | 0.00 | 0.00 | 62 | 1010.9 |
| 20260506033230 | 68 | 204 | 2.0 | 5.0 | 0.00 | 0.00 | 0.00 | 63 | 1010.9 |
| 20260506033126 | 68 | 231 | 3.0 | 8.0 | 0.00 | 0.00 | 0.00 | 62 | 1010.9 |
| 20260506033022 | 68 | 213 | 5.0 | 9.0 | 0.00 | 0.00 | 0.00 | 63 | 1010.9 |
| 20260506032957 | 68 | 213 | 3.0 | 5.0 | 0.00 | 0.00 | 0.00 | 63 | 1010.7 |
| 20260506032829 | 68 | 216 | 4.0 | 4.0 | 0.00 | 0.00 | 0.00 | 62 | 1010.7 |
| 20260506032724 | 68 | 216 | 3.0 | 4.0 | 0.00 | 0.00 | 0.00 | 62 | 1010.8 |
| 20260506032620 | 68 | 204 | 3.0 | 6.0 | 0.00 | 0.00 | 0.00 | 62 | 1010.9 |
| 20260506032516 | 68 | 207 | 4.0 | 6.0 | 0.00 | 0.00 | 0.00 | 62 | 1010.9 |
| 20260506032447 | 69 | 204 | 2.0 | 3.0 | 0.00 | 0.00 | 0.00 | 62 | 1010.9 |
| 20260506032343 | 69 | 195 | 2.0 | 4.0 | 0.00 | 0.00 | 0.00 | 62 | 1010.9 |
| 20260506032218 | 69 | 224 | 5.0 | 7.0 | 0.00 | 0.00 | 0.00 | 61 | 1010.9 |
| 20260506032150 | 69 | 237 | 5.0 | 8.0 | 0.00 | 0.00 | 0.00 | 62 | 1010.9 |
| 20260506032046 | 69 | 230 | 3.0 | 6.0 | 0.00 | 0.00 | 0.00 | 61 | 1010.6 |
| 20260506031921 | 69 | 206 | 4.0 | 6.0 | 0.00 | 0.00 | 0.00 | 61 | 1010.9 |
| 20260506031816 | 69 | 205 | 5.0 | 7.0 | 0.00 | 0.00 | 0.00 | 61 | 1010.8 |
| 20260506031728 | 69 | 236 | 3.0 | 6.0 | 0.00 | 0.00 | 0.00 | 61 | 1010.9 |
| 20260506031624 | 69 | 264 | 2.0 | 7.0 | 0.00 | 0.00 | 0.00 | 61 | 1010.7 |
| 20260506031540 | 69 | 209 | 4.0 | 9.0 | 0.00 | 0.00 | 0.00 | 61 | 1010.8 |
| 20260506031435 | 69 | 203 | 4.0 | 6.0 | 0.00 | 0.00 | 0.00 | 61 | 1010.8 |
| 20260506031327 | 69 | 207 | 5.0 | 9.0 | 0.00 | 0.00 | 0.00 | 61 | 1011.1 |
| 20260506031222 | 69 | 215 | 4.0 | 7.0 | 0.00 | 0.00 | 0.00 | 61 | 1010.8 |
| 20260506031118 | 69 | 204 | 3.0 | 5.0 | 0.00 | 0.00 | 0.00 | 61 | 1010.8 |
| 20260506031050 | 69 | 223 | 3.0 | 8.0 | 0.00 | 0.00 | 0.00 | 61 | 1011.0 |
| 20260506030925 | 69 | 200 | 5.0 | 9.0 | 0.00 | 0.00 | 0.00 | 61 | 1010.8 |
| 20260506030821 | 69 | 215 | 6.0 | 9.0 | 0.00 | 0.00 | 0.00 | 60 | 1010.9 |
| 20260506030717 | 69 | 205 | 4.0 | 7.0 | 0.00 | 0.00 | 0.00 | 61 | 1010.8 |
| 20260506030628 | 69 | 214 | 4.0 | 6.0 | 0.00 | 0.00 | 0.00 | 60 | 1010.8 |
| 20260506030524 | 69 | 211 | 4.0 | 8.0 | 0.00 | 0.00 | 0.00 | 60 | 1010.7 |
| 20260506030420 | 69 | 196 | 5.0 | 6.0 | 0.00 | 0.00 | 0.00 | 60 | 1010.8 |
| 20260506030315 | 69 | 228 | 4.0 | 5.0 | 0.00 | 0.00 | 0.00 | 60 | 1010.7 |
| 20260506030227 | 69 | 216 | 7.0 | 12.0 | 0.00 | 0.00 | 0.00 | 60 | 1010.9 |
| 20260506030123 | 69 | 200 | 5.0 | 9.0 | 0.00 | 0.00 | 0.00 | 60 | 1010.8 |
| 20260506030018 | 69 | 213 | 4.0 | 12.0 | 0.00 | 0.00 | 0.00 | 59 | 1010.9 |
| 20260506025930 | 69 | 201 | 4.0 | 13.0 | 0.00 | 0.00 | 0.00 | 60 | 1010.7 |
| 20260506025825 | 69 | 230 | 4.0 | 8.0 | 0.00 | 0.00 | 0.00 | 60 | 1010.6 |
| 20260506025721 | 69 | 213 | 5.0 | 7.0 | 0.00 | 0.00 | 0.00 | 60 | 1010.8 |
| 20260506025637 | 69 | 210 | 5.0 | 7.0 | 0.00 | 0.00 | 0.00 | 60 | 1010.8 |
| 20260506025549 | 69 | 200 | 3.0 | 5.0 | 0.00 | 0.00 | 0.00 | 59 | 1010.7 |
| 20260506025424 | 69 | 204 | 4.0 | 9.0 | 0.00 | 0.00 | 0.00 | 59 | 1010.7 |
| 20260506025320 | 69 | 197 | 4.0 | 7.0 | 0.00 | 0.00 | 0.00 | 59 | 1010.8 |
| 20260506025215 | 69 | 206 | 3.0 | 5.0 | 0.00 | 0.00 | 0.00 | 59 | 1010.7 |
| 20260506025127 | 69 | 201 | 3.0 | 4.0 | 0.00 | 0.00 | 0.00 | 59 | 1010.6 |
| 20260506025023 | 69 | 208 | 4.0 | 7.0 | 0.00 | 0.00 | 0.00 | 59 | 1010.8 |
| 20260506024918 | 70 | 218 | 4.0 | 9.0 | 0.00 | 0.00 | 0.00 | 59 | 1010.7 |
| 20260506024830 | 70 | 220 | 5.0 | 6.0 | 0.00 | 0.00 | 0.00 | 59 | 1010.8 |
| 20260506024726 | 70 | 199 | 3.0 | 7.0 | 0.00 | 0.00 | 0.00 | 59 | 1010.8 |
| 20260506024641 | 70 | 207 | 3.0 | 7.0 | 0.00 | 0.00 | 0.00 | 59 | 1010.8 |
| 20260506024537 | 69 | 216 | 5.0 | 9.0 | 0.00 | 0.00 | 0.00 | 59 | 1010.8 |
| 20260506024428 | 69 | 208 | 6.0 | 12.0 | 0.00 | 0.00 | 0.00 | 59 | 1010.7 |
| 20260506024324 | 70 | 222 | 4.0 | 6.0 | 0.00 | 0.00 | 0.00 | 59 | 1010.6 |
| 20260506024219 | 70 | 200 | 6.0 | 7.0 | 0.00 | 0.00 | 0.00 | 59 | 1010.7 |
| 20260506024115 | 70 | 208 | 4.0 | 8.0 | 0.00 | 0.00 | 0.00 | 59 | 1010.9 |
| 20260506024027 | 70 | 218 | 3.0 | 6.0 | 0.00 | 0.00 | 0.00 | 59 | 1010.7 |
| 20260506023923 | 70 | 223 | 2.0 | 5.0 | 0.00 | 0.00 | 0.00 | 59 | 1010.8 |
| 20260506023838 | 70 | 208 | 4.0 | 6.0 | 0.00 | 0.00 | 0.00 | 59 | 1010.8 |
| 20260506023730 | 70 | 206 | 3.0 | 6.0 | 0.00 | 0.00 | 0.00 | 59 | 1010.7 |
| 20260506023625 | 70 | 225 | 5.0 | 10.0 | 0.00 | 0.00 | 0.00 | 58 | 1010.6 |
| 20260506023521 | 70 | 202 | 10.0 | 11.0 | 0.00 | 0.00 | 0.00 | 58 | 1010.8 |
| 20260506023417 | 70 | 205 | 4.0 | 9.0 | 0.00 | 0.00 | 0.00 | 58 | 1011.0 |
| 20260506023329 | 70 | 194 | 4.0 | 9.0 | 0.00 | 0.00 | 0.00 | 58 | 1010.7 |
| 20260506023224 | 70 | 213 | 5.0 | 6.0 | 0.00 | 0.00 | 0.00 | 58 | 1010.8 |
| 20260506023120 | 70 | 203 | 6.0 | 14.0 | 0.00 | 0.00 | 0.00 | 58 | 1011.0 |
| 20260506023015 | 70 | 204 | 5.0 | 14.0 | 0.00 | 0.00 | 0.00 | 58 | 1010.8 |
| 20260506022927 | 70 | 201 | 6.0 | 10.0 | 0.00 | 0.00 | 0.00 | 58 | 1010.8 |
| 20260506022823 | 70 | 246 | 5.0 | 10.0 | 0.00 | 0.00 | 0.00 | 58 | 1010.9 |
| 20260506022738 | 70 | 227 | 5.0 | 7.0 | 0.00 | 0.00 | 0.00 | 58 | 1010.6 |
| 20260506022630 | 70 | 215 | 4.0 | 6.0 | 0.00 | 0.00 | 0.00 | 58 | 1010.7 |
| 20260506022546 | 70 | 236 | 4.0 | 7.0 | 0.00 | 0.00 | 0.00 | 58 | 1010.9 |
| 20260506022420 | 70 | 191 | 6.0 | 9.0 | 0.00 | 0.00 | 0.00 | 58 | 1010.7 |
| 20260506022316 | 70 | 206 | 3.0 | 6.0 | 0.00 | 0.00 | 0.00 | 59 | 1010.7 |
| 20260506022248 | 70 | 216 | 3.0 | 6.0 | 0.00 | 0.00 | 0.00 | 58 | 1010.9 |
| 20260506022123 | 70 | 227 | 4.0 | 6.0 | 0.00 | 0.00 | 0.00 | 58 | 1010.7 |
| 20260506022019 | 70 | 207 | 5.0 | 7.0 | 0.00 | 0.00 | 0.00 | 58 | 1010.7 |
| 20260506021931 | 70 | 203 | 5.0 | 7.0 | 0.00 | 0.00 | 0.00 | 58 | 1010.8 |
| 20260506021846 | 70 | 229 | 3.0 | 5.0 | 0.00 | 0.00 | 0.00 | 58 | 1010.6 |
| 20260506021722 | 70 | 202 | 3.0 | 6.0 | 0.00 | 0.00 | 0.00 | 58 | 1010.8 |
| 20260506021617 | 70 | 195 | 2.0 | 8.0 | 0.00 | 0.00 | 0.00 | 58 | 1010.8 |
| 20260506021529 | 70 | 201 | 4.0 | 8.0 | 0.00 | 0.00 | 0.00 | 58 | 1010.7 |
| 20260506021425 | 70 | 218 | 4.0 | 8.0 | 0.00 | 0.00 | 0.00 | 58 | 1010.7 |
| 20260506021320 | 70 | 210 | 3.0 | 6.0 | 0.00 | 0.00 | 0.00 | 58 | 1010.8 |
| 20260506021216 | 70 | 212 | 6.0 | 9.0 | 0.00 | 0.00 | 0.00 | 57 | 1010.9 |
| 20260506021128 | 70 | 219 | 6.0 | 10.0 | 0.00 | 0.00 | 0.00 | 57 | 1010.8 |
| 20260506021023 | 70 | 205 | 6.0 | 8.0 | 0.00 | 0.00 | 0.00 | 58 | 1010.5 |
| 20260506020919 | 70 | 214 | 6.0 | 10.0 | 0.00 | 0.00 | 0.00 | 57 | 1010.6 |
| 20260506020830 | 70 | 214 | 5.0 | 7.0 | 0.00 | 0.00 | 0.00 | 58 | 1010.8 |
| 20260506020726 | 71 | 223 | 3.0 | 6.0 | 0.00 | 0.00 | 0.00 | 58 | 1010.7 |
| 20260506020622 | 71 | 204 | 5.0 | 11.0 | 0.00 | 0.00 | 0.00 | 57 | 1010.7 |
| 20260506020517 | 71 | 240 | 3.0 | 4.0 | 0.00 | 0.00 | 0.00 | 57 | 1010.6 |
| 20260506020429 | 71 | 219 | 4.0 | 7.0 | 0.00 | 0.00 | 0.00 | 57 | 1011.0 |
| 20260506020325 | 71 | 213 | 4.0 | 6.0 | 0.00 | 0.00 | 0.00 | 57 | 1010.7 |
| 20260506020220 | 71 | 252 | 4.0 | 6.0 | 0.00 | 0.00 | 0.00 | 57 | 1010.5 |
| 20260506020116 | 71 | 200 | 5.0 | 10.0 | 0.00 | 0.00 | 0.00 | 57 | 1010.6 |
| 20260506020028 | 71 | 200 | 6.0 | 12.0 | 0.00 | 0.00 | 0.00 | 57 | 1010.8 |
| 20260506015923 | 71 | 201 | 6.0 | 13.0 | 0.00 | 0.00 | 0.00 | 57 | 1010.8 |
| 20260506015819 | 71 | 207 | 4.0 | 6.0 | 0.00 | 0.00 | 0.00 | 57 | 1010.5 |
| 20260506015731 | 71 | 210 | 3.0 | 6.0 | 0.00 | 0.00 | 0.00 | 57 | 1010.7 |
| 20260506015626 | 71 | 218 | 2.0 | 7.0 | 0.00 | 0.00 | 0.00 | 57 | 1010.7 |
| 20260506015542 | 71 | 203 | 7.0 | 9.0 | 0.00 | 0.00 | 0.00 | 57 | 1010.9 |
| 20260506015437 | 71 | 200 | 2.0 | 4.0 | 0.00 | 0.00 | 0.00 | 57 | 1010.8 |
| 20260506015329 | 71 | 196 | 3.0 | 6.0 | 0.00 | 0.00 | 0.00 | 56 | 1010.8 |
| 20260506015225 | 71 | 201 | 5.0 | 6.0 | 0.00 | 0.00 | 0.00 | 56 | 1010.8 |
| 20260506015120 | 71 | 218 | 3.0 | 5.0 | 0.00 | 0.00 | 0.00 | 56 | 1010.7 |
| 20260506015016 | 71 | 200 | 4.0 | 6.0 | 0.00 | 0.00 | 0.00 | 56 | 1010.9 |
| 20260506014927 | 71 | 211 | 2.0 | 4.0 | 0.00 | 0.00 | 0.00 | 56 | 1010.9 |
| 20260506014823 | 71 | 214 | 5.0 | 9.0 | 0.00 | 0.00 | 0.00 | 56 | 1010.6 |
| 20260506014719 | 71 | 223 | 8.0 | 11.0 | 0.00 | 0.00 | 0.00 | 56 | 1010.5 |
| 20260506014631 | 71 | 209 | 4.0 | 6.0 | 0.00 | 0.00 | 0.00 | 56 | 1010.5 |
| 20260506014526 | 71 | 200 | 3.0 | 6.0 | 0.00 | 0.00 | 0.00 | 56 | 1010.5 |
| 20260506014442 | 71 | 209 | 4.0 | 7.0 | 0.00 | 0.00 | 0.00 | 55 | 1010.5 |
| 20260506014317 | 72 | 233 | 3.0 | 6.0 | 0.00 | 0.00 | 0.00 | 55 | 1010.6 |
| 20260506014229 | 72 | 223 | 4.0 | 7.0 | 0.00 | 0.00 | 0.00 | 55 | 1010.6 |
| 20260506014124 | 72 | 222 | 3.0 | 5.0 | 0.00 | 0.00 | 0.00 | 55 | 1010.7 |
| 20260506014020 | 72 | 223 | 3.0 | 7.0 | 0.00 | 0.00 | 0.00 | 55 | 1010.6 |
| 20260506013936 | 72 | 188 | 5.0 | 10.0 | 0.00 | 0.00 | 0.00 | 54 | 1010.6 |
| 20260506013908 | 72 | 210 | 4.0 | 6.0 | 0.00 | 0.00 | 0.00 | 54 | 1010.7 |
| 20260506013723 | 72 | 205 | 3.0 | 5.0 | 0.00 | 0.00 | 0.00 | 54 | 1010.5 |
| 20260506013619 | 72 | 191 | 2.0 | 4.0 | 0.00 | 0.00 | 0.00 | 54 | 1010.7 |
| 20260506013531 | 72 | 212 | 2.0 | 4.0 | 0.00 | 0.00 | 0.00 | 54 | 1010.6 |
| 20260506013426 | 72 | 209 | 5.0 | 8.0 | 0.00 | 0.00 | 0.00 | 53 | 1010.6 |
| 20260506013322 | 72 | 217 | 3.0 | 5.0 | 0.00 | 0.00 | 0.00 | 53 | 1010.5 |
| 20260506013217 | 73 | 198 | 4.0 | 6.0 | 0.00 | 0.00 | 0.00 | 53 | 1010.5 |
| 20260506013129 | 73 | 209 | 5.0 | 7.0 | 0.00 | 0.00 | 0.00 | 52 | 1010.5 |
| 20260506013025 | 73 | 187 | 2.0 | 7.0 | 0.00 | 0.00 | 0.00 | 52 | 1010.5 |
| 20260506012920 | 73 | 211 | 6.0 | 7.0 | 0.00 | 0.00 | 0.00 | 51 | 1010.5 |
| 20260506012836 | 73 | 216 | 8.0 | 16.0 | 0.00 | 0.00 | 0.00 | 51 | 1010.5 |
| 20260506012728 | 73 | 201 | 3.0 | 6.0 | 0.00 | 0.00 | 0.00 | 50 | 1010.4 |
| 20260506012623 | 73 | 207 | 5.0 | 8.0 | 0.00 | 0.00 | 0.00 | 50 | 1010.5 |
| 20260506012539 | 73 | 223 | 4.0 | 6.0 | 0.00 | 0.00 | 0.00 | 49 | 1010.5 |
| 20260506012430 | 74 | 210 | 5.0 | 7.0 | 0.00 | 0.00 | 0.00 | 50 | 1010.4 |
| 20260506012326 | 74 | 239 | 4.0 | 7.0 | 0.00 | 0.00 | 0.00 | 49 | 1010.4 |
| 20260506012222 | 74 | 211 | 8.0 | 11.0 | 0.00 | 0.00 | 0.00 | 49 | 1010.3 |
| 20260506012117 | 74 | 202 | 4.0 | 6.0 | 0.00 | 0.00 | 0.00 | 48 | 1010.3 |
| 20260506012029 | 74 | 209 | 5.0 | 9.0 | 0.00 | 0.00 | 0.00 | 48 | 1010.4 |
| 20260506011945 | 74 | 205 | 4.0 | 6.0 | 0.00 | 0.00 | 0.00 | 48 | 1010.4 |
| 20260506011820 | 74 | 200 | 3.0 | 4.0 | 0.00 | 0.00 | 0.00 | 48 | 1010.4 |
| 20260506011716 | 74 | 204 | 4.0 | 4.0 | 0.00 | 0.00 | 0.00 | 47 | 1010.2 |
| 20260506011627 | 74 | 211 | 7.0 | 11.0 | 0.00 | 0.00 | 0.00 | 47 | 1010.2 |
| 20260506011523 | 74 | 227 | 4.0 | 7.0 | 0.00 | 0.00 | 0.00 | 47 | 1010.2 |
| 20260506011419 | 74 | 221 | 2.0 | 3.0 | 0.00 | 0.00 | 0.00 | 47 | 1010.0 |
| 20260506011331 | 74 | 201 | 3.0 | 6.0 | 0.00 | 0.00 | 0.00 | 47 | 1010.1 |
| 20260506011226 | 74 | 207 | 3.0 | 5.0 | 0.00 | 0.00 | 0.00 | 46 | 1010.1 |
| 20260506011122 | 74 | 194 | 3.0 | 5.0 | 0.00 | 0.00 | 0.00 | 46 | 1010.3 |
| 20260506011017 | 75 | 223 | 3.0 | 5.0 | 0.00 | 0.00 | 0.00 | 46 | 1010.1 |
| 20260506010929 | 75 | 220 | 4.0 | 6.0 | 0.00 | 0.00 | 0.00 | 46 | 1010.0 |
| 20260506010825 | 75 | 226 | 5.0 | 9.0 | 0.00 | 0.00 | 0.00 | 46 | 1010.1 |
| 20260506010720 | 75 | 197 | 5.0 | 8.0 | 0.00 | 0.00 | 0.00 | 45 | 1010.0 |
| 20260506010616 | 75 | 214 | 5.0 | 9.0 | 0.00 | 0.00 | 0.00 | 46 | 1010.1 |
| 20260506010528 | 75 | 217 | 5.0 | 8.0 | 0.00 | 0.00 | 0.00 | 45 | 1009.9 |
| 20260506010423 | 75 | 212 | 3.0 | 6.0 | 0.00 | 0.00 | 0.00 | 46 | 1010.0 |
| 20260506010319 | 75 | 201 | 5.0 | 9.0 | 0.00 | 0.00 | 0.00 | 45 | 1010.0 |
| 20260506010230 | 75 | 212 | 4.0 | 6.0 | 0.00 | 0.00 | 0.00 | 45 | 1010.0 |
| 20260506010126 | 75 | 194 | 3.0 | 9.0 | 0.00 | 0.00 | 0.00 | 45 | 1010.0 |
| 20260506010022 | 75 | 211 | 6.0 | 10.0 | 0.00 | 0.00 | 0.00 | 44 | 1010.0 |
| 20260506005918 | 75 | 248 | 4.0 | 5.0 | 0.00 | 0.00 | 0.00 | 44 | 1009.7 |
| 20260506005849 | 75 | 220 | 2.0 | 7.0 | 0.00 | 0.00 | 0.00 | 44 | 1009.9 |
| 20260506005725 | 75 | 214 | 5.0 | 8.0 | 0.00 | 0.00 | 0.00 | 44 | 1009.9 |
| 20260506005700 | 75 | 220 | 4.0 | 6.0 | 0.00 | 0.00 | 0.00 | 44 | 1009.9 |
| 20260506005516 | 75 | 236 | 3.0 | 6.0 | 0.00 | 0.00 | 0.00 | 44 | 1009.6 |
| 20260506005427 | 75 | 216 | 5.0 | 12.0 | 0.00 | 0.00 | 0.00 | 43 | 1009.9 |
| 20260506005323 | 75 | 233 | 3.0 | 5.0 | 0.00 | 0.00 | 0.00 | 44 | 1009.9 |
| 20260506005219 | 75 | 229 | 3.0 | 5.0 | 0.00 | 0.00 | 0.00 | 43 | 1009.9 |
| 20260506005130 | 75 | 225 | 6.0 | 10.0 | 0.00 | 0.00 | 0.00 | 43 | 1009.8 |
| 20260506005026 | 75 | 207 | 5.0 | 7.0 | 0.00 | 0.00 | 0.00 | 43 | 1009.9 |
| 20260506004921 | 76 | 217 | 3.0 | 5.0 | 0.00 | 0.00 | 0.00 | 43 | 1009.7 |
| 20260506004837 | 76 | 210 | 4.0 | 9.0 | 0.00 | 0.00 | 0.00 | 43 | 1009.7 |
| 20260506004729 | 76 | 213 | 5.0 | 7.0 | 0.00 | 0.00 | 0.00 | 43 | 1009.9 |
| 20260506004645 | 75 | 202 | 5.0 | 7.0 | 0.00 | 0.00 | 0.00 | 43 | 1009.8 |
| 20260506004540 | 75 | 215 | 5.0 | 8.0 | 0.00 | 0.00 | 0.00 | 43 | 1009.9 |
| 20260506004416 | 76 | 223 | 2.0 | 4.0 | 0.00 | 0.00 | 0.00 | 43 | 1009.8 |
| 20260506004327 | 76 | 202 | 3.0 | 5.0 | 0.00 | 0.00 | 0.00 | 43 | 1009.7 |
| 20260506004223 | 76 | 217 | 3.0 | 3.0 | 0.00 | 0.00 | 0.00 | 43 | 1009.8 |
| 20260506004119 | 76 | 210 | 3.0 | 4.0 | 0.00 | 0.00 | 0.00 | 42 | 1009.6 |
| 20260506004050 | 76 | 204 | 4.0 | 6.0 | 0.00 | 0.00 | 0.00 | 43 | 1009.7 |
| 20260506003926 | 76 | 197 | 3.0 | 5.0 | 0.00 | 0.00 | 0.00 | 43 | 1009.7 |
| 20260506003824 | 76 | 223 | 2.0 | 4.0 | 0.00 | 0.00 | 0.00 | 42 | 1009.8 |
| 20260506003717 | 76 | 200 | 3.0 | 5.0 | 0.00 | 0.00 | 0.00 | 42 | 1009.7 |
| 20260506003629 | 76 | 217 | 4.0 | 7.0 | 0.00 | 0.00 | 0.00 | 42 | 1009.8 |
| 20260506003524 | 76 | 206 | 4.0 | 7.0 | 0.00 | 0.00 | 0.00 | 42 | 1009.8 |
| 20260506003420 | 76 | 201 | 3.0 | 5.0 | 0.00 | 0.00 | 0.00 | 42 | 1009.7 |
| 20260506003316 | 76 | 214 | 2.0 | 3.0 | 0.00 | 0.00 | 0.00 | 42 | 1009.8 |
| 20260506003247 | 76 | 223 | 3.0 | 4.0 | 0.00 | 0.00 | 0.00 | 42 | 1009.7 |
| 20260506003143 | 76 | 208 | 6.0 | 9.0 | 0.00 | 0.00 | 0.00 | 41 | 1009.7 |
| 20260506003038 | 76 | 209 | 4.0 | 5.0 | 0.00 | 0.00 | 0.00 | 41 | 1009.5 |
| 20260506002950 | 76 | 219 | 4.0 | 6.0 | 0.00 | 0.00 | 0.00 | 41 | 1009.5 |
| 20260506002825 | 76 | 204 | 4.0 | 7.0 | 0.00 | 0.00 | 0.00 | 41 | 1009.7 |
| 20260506002721 | 77 | 209 | 2.0 | 5.0 | 0.00 | 0.00 | 0.00 | 42 | 1009.8 |
| 20260506002616 | 77 | 212 | 4.0 | 5.0 | 0.00 | 0.00 | 0.00 | 41 | 1009.7 |
| 20260506002528 | 77 | 203 | 5.0 | 9.0 | 0.00 | 0.00 | 0.00 | 41 | 1009.6 |
| 20260506002423 | 77 | 209 | 6.0 | 9.0 | 0.00 | 0.00 | 0.00 | 41 | 1009.6 |
| 20260506002319 | 76 | 200 | 5.0 | 9.0 | 0.00 | 0.00 | 0.00 | 41 | 1009.7 |
| 20260506002231 | 77 | 216 | 4.0 | 6.0 | 0.00 | 0.00 | 0.00 | 41 | 1009.9 |
| 20260506002126 | 77 | 215 | 2.0 | 5.0 | 0.00 | 0.00 | 0.00 | 42 | 1009.7 |
| 20260506002022 | 77 | 225 | 3.0 | 8.0 | 0.00 | 0.00 | 0.00 | 41 | 1009.7 |
| 20260506001918 | 77 | 201 | 4.0 | 5.0 | 0.00 | 0.00 | 0.00 | 41 | 1009.6 |
| 20260506001829 | 77 | 207 | 4.0 | 6.0 | 0.00 | 0.00 | 0.00 | 41 | 1009.4 |
| 20260506001725 | 77 | 209 | 3.0 | 5.0 | 0.00 | 0.00 | 0.00 | 41 | 1009.5 |
| 20260506001620 | 77 | 209 | 4.0 | 6.0 | 0.00 | 0.00 | 0.00 | 41 | 1009.5 |
| 20260506001516 | 77 | 224 | 5.0 | 10.0 | 0.00 | 0.00 | 0.00 | 41 | 1009.5 |
| 20260506001428 | 77 | 208 | 5.0 | 10.0 | 0.00 | 0.00 | 0.00 | 41 | 1009.5 |
| 20260506001323 | 77 | 202 | 5.0 | 6.0 | 0.00 | 0.00 | 0.00 | 41 | 1009.4 |
| 20260506001219 | 77 | 200 | 4.0 | 7.0 | 0.00 | 0.00 | 0.00 | 41 | 1009.4 |
| 20260506001130 | 77 | 241 | 5.0 | 7.0 | 0.00 | 0.00 | 0.00 | 41 | 1009.4 |
| 20260506001026 | 77 | 216 | 5.0 | 9.0 | 0.00 | 0.00 | 0.00 | 41 | 1009.3 |
| 20260506000921 | 77 | 213 | 2.0 | 5.0 | 0.00 | 0.00 | 0.00 | 41 | 1009.5 |
| 20260506000816 | 77 | 207 | 4.0 | 6.0 | 0.00 | 0.00 | 0.00 | 41 | 1009.4 |
| 20260506000748 | 77 | 233 | 5.0 | 9.0 | 0.00 | 0.00 | 0.00 | 40 | 1009.6 |
| 20260506000644 | 77 | 206 | 6.0 | 7.0 | 0.00 | 0.00 | 0.00 | 41 | 1009.4 |
| 20260506000520 | 77 | 214 | 5.0 | 8.0 | 0.00 | 0.00 | 0.00 | 40 | 1009.4 |
| 20260506000416 | 77 | 194 | 2.0 | 7.0 | 0.00 | 0.00 | 0.00 | 41 | 1009.3 |
| 20260506000326 | 77 | 218 | 3.0 | 4.0 | 0.00 | 0.00 | 0.00 | 40 | 1009.5 |
| 20260506000222 | 77 | 215 | 4.0 | 5.0 | 0.00 | 0.00 | 0.00 | 40 | 1009.4 |
| 20260506000138 | 78 | 276 | 3.0 | 5.0 | 0.00 | 0.00 | 0.00 | 40 | 1009.3 |
| 20260506000030 | 78 | 231 | 3.0 | 5.0 | 0.00 | 0.00 | 0.00 | 40 | 1009.3 |
| 20260505235925 | 78 | 206 | 4.0 | 9.0 | 0.00 | 0.00 | 0.00 | 40 | 1009.5 |
| 20260505235840 | 78 | 217 | 6.0 | 9.0 | 0.00 | 0.00 | 0.00 | 39 | 1009.3 |
| 20260505235716 | 78 | 217 | 3.0 | 5.0 | 0.00 | 0.00 | 0.00 | 40 | 1009.2 |
| 20260505235648 | 78 | 207 | 4.0 | 5.0 | 0.00 | 0.00 | 0.00 | 39 | 1009.4 |
| 20260505235523 | 78 | 200 | 7.0 | 10.0 | 0.00 | 0.00 | 0.00 | 39 | 1009.5 |
| 20260505235419 | 78 | 213 | 6.0 | 9.0 | 0.00 | 0.00 | 0.00 | 39 | 1009.2 |
| 20260505235331 | 78 | 207 | 4.0 | 6.0 | 0.00 | 0.00 | 0.00 | 39 | 1009.3 |
| 20260505235226 | 78 | 218 | 4.0 | 5.0 | 0.00 | 0.00 | 0.00 | 39 | 1009.2 |
| 20260505235122 | 78 | 230 | 3.0 | 10.0 | 0.00 | 0.00 | 0.00 | 39 | 1009.3 |
| 20260505235017 | 78 | 204 | 8.0 | 12.0 | 0.00 | 0.00 | 0.00 | 38 | 1009.1 |
| 20260505234929 | 78 | 205 | 5.0 | 9.0 | 0.00 | 0.00 | 0.00 | 38 | 1009.2 |
| 20260505234825 | 78 | 209 | 5.0 | 11.0 | 0.00 | 0.00 | 0.00 | 38 | 1009.4 |
| 20260505234720 | 78 | 207 | 8.0 | 13.0 | 0.00 | 0.00 | 0.00 | 38 | 1009.3 |
| 20260505234616 | 78 | 212 | 4.0 | 6.0 | 0.00 | 0.00 | 0.00 | 38 | 1009.2 |
| 20260505234527 | 78 | 210 | 4.0 | 7.0 | 0.00 | 0.00 | 0.00 | 37 | 1009.2 |
| 20260505234443 | 78 | 216 | 2.0 | 4.0 | 0.00 | 0.00 | 0.00 | 37 | 1009.4 |
| 20260505234319 | 79 | 207 | 4.0 | 5.0 | 0.00 | 0.00 | 0.00 | 37 | 1009.3 |
| 20260505234230 | 79 | 230 | 2.0 | 5.0 | 0.00 | 0.00 | 0.00 | 37 | 1009.2 |
| 20260505234126 | 79 | 213 | 3.0 | 5.0 | 0.00 | 0.00 | 0.00 | 37 | 1009.3 |
| 20260505234021 | 79 | 213 | 6.0 | 8.0 | 0.00 | 0.00 | 0.00 | 36 | 1009.0 |
| 20260505233917 | 79 | 220 | 6.0 | 9.0 | 0.00 | 0.00 | 0.00 | 36 | 1009.2 |
| 20260505233829 | 79 | 215 | 5.0 | 8.0 | 0.00 | 0.00 | 0.00 | 36 | 1009.1 |
| 20260505233724 | 79 | 202 | 7.0 | 11.0 | 0.00 | 0.00 | 0.00 | 36 | 1009.4 |
| 20260505233620 | 79 | 215 | 5.0 | 5.0 | 0.00 | 0.00 | 0.00 | 36 | 1009.1 |
| 20260505233516 | 79 | 209 | 3.0 | 4.0 | 0.00 | 0.00 | 0.00 | 36 | 1009.1 |
| 20260505233427 | 79 | 205 | 3.0 | 7.0 | 0.00 | 0.00 | 0.00 | 35 | 1009.0 |
| 20260505233403 | 79 | 217 | 4.0 | 7.0 | 0.00 | 0.00 | 0.00 | 35 | 1009.1 |
| 20260505233219 | 79 | 211 | 4.0 | 9.0 | 0.00 | 0.00 | 0.00 | 35 | 1009.0 |
| 20260505233130 | 79 | 201 | 5.0 | 9.0 | 0.00 | 0.00 | 0.00 | 35 | 1009.0 |
| 20260505233026 | 79 | 211 | 6.0 | 16.0 | 0.00 | 0.00 | 0.00 | 35 | 1008.9 |
| 20260505232941 | 79 | 207 | 9.0 | 16.0 | 0.00 | 0.00 | 0.00 | 34 | 1009.0 |
| 20260505232817 | 79 | 227 | 8.0 | 10.0 | 0.00 | 0.00 | 0.00 | 35 | 1008.9 |
| 20260505232749 | 79 | 207 | 5.0 | 9.0 | 0.00 | 0.00 | 0.00 | 35 | 1008.8 |
| 20260505232624 | 79 | 210 | 3.0 | 5.0 | 0.00 | 0.00 | 0.00 | 35 | 1008.9 |
| 20260505232520 | 79 | 263 | 2.0 | 6.0 | 0.00 | 0.00 | 0.00 | 35 | 1009.0 |
| 20260505232416 | 79 | 230 | 4.0 | 6.0 | 0.00 | 0.00 | 0.00 | 35 | 1008.9 |
| 20260505232327 | 79 | 213 | 4.0 | 6.0 | 0.00 | 0.00 | 0.00 | 35 | 1008.8 |
| 20260505232223 | 79 | 215 | 2.0 | 3.0 | 0.00 | 0.00 | 0.00 | 34 | 1008.8 |
| 20260505232118 | 79 | 204 | 2.0 | 4.0 | 0.00 | 0.00 | 0.00 | 35 | 1008.9 |
| 20260505232030 | 79 | 221 | 1.0 | 5.0 | 0.00 | 0.00 | 0.00 | 34 | 1008.8 |
| 20260505231945 | 80 | 269 | 3.0 | 5.0 | 0.00 | 0.00 | 0.00 | 34 | 1008.9 |
| 20260505231821 | 80 | 216 | 2.0 | 5.0 | 0.00 | 0.00 | 0.00 | 34 | 1008.9 |
| 20260505231717 | 80 | 234 | 2.0 | 7.0 | 0.00 | 0.00 | 0.00 | 33 | 1009.0 |
| 20260505231628 | 80 | 211 | 5.0 | 9.0 | 0.00 | 0.00 | 0.00 | 33 | 1008.7 |
| 20260505231544 | 80 | 243 | 3.0 | 9.0 | 0.00 | 0.00 | 0.00 | 33 | 1008.9 |
| 20260505231439 | 80 | 250 | 4.0 | 6.0 | 0.00 | 0.00 | 0.00 | 33 | 1008.6 |
| 20260505231351 | 80 | 262 | 4.0 | 6.0 | 0.00 | 0.00 | 0.00 | 34 | 1008.8 |
| 20260505231227 | 80 | 233 | 5.0 | 8.0 | 0.00 | 0.00 | 0.00 | 34 | 1008.7 |
| 20260505231142 | 80 | 232 | 3.0 | 5.0 | 0.00 | 0.00 | 0.00 | 34 | 1008.8 |
| 20260505231018 | 80 | 201 | 5.0 | 8.0 | 0.00 | 0.00 | 0.00 | 34 | 1008.5 |
| 20260505230929 | 80 | 230 | 3.0 | 6.0 | 0.00 | 0.00 | 0.00 | 33 | 1008.7 |
| 20260505230845 | 80 | 206 | 3.0 | 5.0 | 0.00 | 0.00 | 0.00 | 34 | 1008.7 |
| 20260505230721 | 80 | 210 | 3.0 | 5.0 | 0.00 | 0.00 | 0.00 | 33 | 1008.6 |
| 20260505230616 | 80 | 201 | 4.0 | 7.0 | 0.00 | 0.00 | 0.00 | 33 | 1008.6 |
| 20260505230528 | 80 | 211 | 2.0 | 5.0 | 0.00 | 0.00 | 0.00 | 33 | 1008.6 |
| 20260505230424 | 80 | 215 | 2.0 | 4.0 | 0.00 | 0.00 | 0.00 | 33 | 1008.6 |
| 20260505230319 | 80 | 223 | 2.0 | 5.0 | 0.00 | 0.00 | 0.00 | 32 | 1008.8 |
| 20260505230251 | 80 | 214 | 6.0 | 10.0 | 0.00 | 0.00 | 0.00 | 33 | 1008.6 |
| 20260505230126 | 80 | 240 | 6.0 | 12.0 | 0.00 | 0.00 | 0.00 | 32 | 1008.7 |
| 20260505230022 | 80 | 221 | 4.0 | 5.0 | 0.00 | 0.00 | 0.00 | 32 | 1008.6 |
| 20260505225917 | 80 | 221 | 2.0 | 4.0 | 0.00 | 0.00 | 0.00 | 33 | 1008.7 |
| 20260505225829 | 80 | 225 | 2.0 | 4.0 | 0.00 | 0.00 | 0.00 | 33 | 1008.6 |
| 20260505225724 | 80 | 261 | 2.0 | 6.0 | 0.00 | 0.00 | 0.00 | 32 | 1008.6 |
| 20260505225620 | 80 | 206 | 4.0 | 6.0 | 0.00 | 0.00 | 0.00 | 32 | 1008.6 |
| 20260505225516 | 80 | 218 | 2.0 | 8.0 | 0.00 | 0.00 | 0.00 | 32 | 1008.6 |
| 20260505225428 | 80 | 253 | 3.0 | 8.0 | 0.00 | 0.00 | 0.00 | 32 | 1008.4 |
| 20260505225323 | 80 | 220 | 4.0 | 6.0 | 0.00 | 0.00 | 0.00 | 32 | 1008.5 |
| 20260505225219 | 80 | 200 | 5.0 | 6.0 | 0.00 | 0.00 | 0.00 | 32 | 1008.7 |
| 20260505225130 | 80 | 225 | 4.0 | 7.0 | 0.00 | 0.00 | 0.00 | 32 | 1008.5 |
| 20260505225026 | 80 | 207 | 5.0 | 8.0 | 0.00 | 0.00 | 0.00 | 32 | 1008.5 |
| 20260505224922 | 80 | 209 | 5.0 | 10.0 | 0.00 | 0.00 | 0.00 | 32 | 1008.5 |
| 20260505224817 | 80 | 208 | 5.0 | 9.0 | 0.00 | 0.00 | 0.00 | 32 | 1008.6 |
| 20260505224729 | 80 | 217 | 6.0 | 11.0 | 0.00 | 0.00 | 0.00 | 31 | 1008.4 |
| 20260505224624 | 80 | 204 | 6.0 | 9.0 | 0.00 | 0.00 | 0.00 | 31 | 1008.5 |
| 20260505224520 | 80 | 206 | 4.0 | 9.0 | 0.00 | 0.00 | 0.00 | 31 | 1008.4 |
| 20260505224435 | 80 | 209 | 6.0 | 10.0 | 0.00 | 0.00 | 0.00 | 31 | 1008.4 |
| 20260505224327 | 80 | 197 | 6.0 | 13.0 | 0.00 | 0.00 | 0.00 | 31 | 1008.6 |
| 20260505224223 | 80 | 199 | 5.0 | 9.0 | 0.00 | 0.00 | 0.00 | 31 | 1008.6 |
| 20260505224119 | 80 | 259 | 4.0 | 12.0 | 0.00 | 0.00 | 0.00 | 31 | 1008.4 |
| 20260505224030 | 80 | 204 | 6.0 | 12.0 | 0.00 | 0.00 | 0.00 | 31 | 1008.4 |
| 20260505224026 | 80 | 216 | 4.0 | 8.0 | 0.00 | 0.00 | 0.00 | 31 | 1008.5 |
| 20260505223821 | 80 | 203 | 7.0 | 12.0 | 0.00 | 0.00 | 0.00 | 31 | 1008.4 |
| 20260505223717 | 80 | 204 | 9.0 | 11.0 | 0.00 | 0.00 | 0.00 | 31 | 1008.5 |
| 20260505223628 | 80 | 221 | 6.0 | 11.0 | 0.00 | 0.00 | 0.00 | 31 | 1008.6 |
| 20260505223524 | 80 | 232 | 6.0 | 11.0 | 0.00 | 0.00 | 0.00 | 31 | 1008.5 |
| 20260505223420 | 80 | 245 | 8.0 | 16.0 | 0.00 | 0.00 | 0.00 | 30 | 1008.6 |
| 20260505223315 | 80 | 201 | 9.0 | 13.0 | 0.00 | 0.00 | 0.00 | 30 | 1008.5 |
| 20260505223227 | 80 | 211 | 8.0 | 14.0 | 0.00 | 0.00 | 0.00 | 30 | 1008.6 |
| 20260505223122 | 80 | 208 | 5.0 | 11.0 | 0.00 | 0.00 | 0.00 | 31 | 1008.6 |
| 20260505223018 | 80 | 232 | 6.0 | 9.0 | 0.00 | 0.00 | 0.00 | 30 | 1008.6 |
| 20260505222950 | 80 | 211 | 10.0 | 15.0 | 0.00 | 0.00 | 0.00 | 30 | 1008.5 |
| 20260505222825 | 80 | 194 | 6.0 | 10.0 | 0.00 | 0.00 | 0.00 | 30 | 1008.4 |
| 20260505222801 | 80 | 204 | 9.0 | 14.0 | 0.00 | 0.00 | 0.00 | 29 | 1008.5 |
| 20260505222637 | 80 | 219 | 6.0 | 12.0 | 0.00 | 0.00 | 0.00 | 30 | 1008.5 |
| 20260505222528 | 80 | 216 | 6.0 | 11.0 | 0.00 | 0.00 | 0.00 | 29 | 1008.6 |
| 20260505222423 | 80 | 207 | 7.0 | 11.0 | 0.00 | 0.00 | 0.00 | 30 | 1008.4 |
| 20260505222319 | 80 | 221 | 7.0 | 12.0 | 0.00 | 0.00 | 0.00 | 30 | 1008.4 |
| 20260505222230 | 80 | 228 | 5.0 | 7.0 | 0.00 | 0.00 | 0.00 | 29 | 1008.5 |
| 20260505222126 | 81 | 226 | 5.0 | 8.0 | 0.00 | 0.00 | 0.00 | 30 | 1008.6 |
| 20260505222021 | 81 | 217 | 5.0 | 8.0 | 0.00 | 0.00 | 0.00 | 30 | 1008.5 |
| 20260505221917 | 81 | 219 | 1.0 | 2.0 | 0.00 | 0.00 | 0.00 | 30 | 1008.4 |
| 20260505221829 | 81 | 211 | 5.0 | 11.0 | 0.00 | 0.00 | 0.00 | 30 | 1008.5 |
| 20260505221724 | 81 | 222 | 6.0 | 11.0 | 0.00 | 0.00 | 0.00 | 29 | 1008.4 |
| 20260505221620 | 81 | 217 | 7.0 | 13.0 | 0.00 | 0.00 | 0.00 | 29 | 1008.6 |
| 20260505221516 | 81 | 212 | 6.0 | 14.0 | 0.00 | 0.00 | 0.00 | 29 | 1008.5 |
| 20260505221427 | 81 | 251 | 5.0 | 11.0 | 0.00 | 0.00 | 0.00 | 29 | 1008.6 |
| 20260505221323 | 81 | 208 | 8.0 | 11.0 | 0.00 | 0.00 | 0.00 | 30 | 1008.6 |
| 20260505221218 | 81 | 222 | 5.0 | 8.0 | 0.00 | 0.00 | 0.00 | 29 | 1008.4 |
| 20260505221130 | 81 | 227 | 5.0 | 9.0 | 0.00 | 0.00 | 0.00 | 29 | 1008.4 |
| 20260505221026 | 81 | 206 | 6.0 | 11.0 | 0.00 | 0.00 | 0.00 | 29 | 1008.5 |
| 20260505220921 | 81 | 234 | 3.0 | 6.0 | 0.00 | 0.00 | 0.00 | 29 | 1008.5 |
| 20260505220817 | 81 | 246 | 4.0 | 6.0 | 0.00 | 0.00 | 0.00 | 30 | 1008.6 |
| 20260505220728 | 81 | 222 | 5.0 | 9.0 | 0.00 | 0.00 | 0.00 | 30 | 1008.5 |
| 20260505220624 | 81 | 242 | 4.0 | 8.0 | 0.00 | 0.00 | 0.00 | 29 | 1008.5 |
| 20260505220520 | 81 | 213 | 4.0 | 6.0 | 0.00 | 0.00 | 0.00 | 30 | 1008.5 |
| 20260505220415 | 82 | 221 | 4.0 | 6.0 | 0.00 | 0.00 | 0.00 | 30 | 1008.4 |
| 20260505220327 | 82 | 203 | 6.0 | 10.0 | 0.00 | 0.00 | 0.00 | 29 | 1008.3 |
| 20260505220303 | 82 | 200 | 7.0 | 9.0 | 0.00 | 0.00 | 0.00 | 29 | 1008.5 |
| 20260505220118 | 82 | 304 | 4.0 | 12.0 | 0.00 | 0.00 | 0.00 | 28 | 1008.3 |
| 20260505220030 | 82 | 203 | 6.0 | 11.0 | 0.00 | 0.00 | 0.00 | 29 | 1008.3 |
| 20260505215925 | 82 | 206 | 5.0 | 8.0 | 0.00 | 0.00 | 0.00 | 30 | 1008.2 |
| 20260505215821 | 82 | 204 | 6.0 | 10.0 | 0.00 | 0.00 | 0.00 | 29 | 1008.4 |
| 20260505215717 | 82 | 227 | 6.0 | 13.0 | 0.00 | 0.00 | 0.00 | 29 | 1008.4 |
| 20260505215629 | 82 | 214 | 5.0 | 7.0 | 0.00 | 0.00 | 0.00 | 29 | 1008.3 |
| 20260505215544 | 82 | 240 | 4.0 | 11.0 | 0.00 | 0.00 | 0.00 | 29 | 1008.1 |
| 20260505215420 | 82 | 237 | 3.0 | 6.0 | 0.00 | 0.00 | 0.00 | 29 | 1008.3 |
| 20260505215315 | 82 | 234 | 6.0 | 9.0 | 0.00 | 0.00 | 0.00 | 29 | 1008.2 |
| 20260505215227 | 82 | 239 | 5.0 | 10.0 | 0.00 | 0.00 | 0.00 | 28 | 1008.0 |
| 20260505215123 | 82 | 211 | 5.0 | 8.0 | 0.00 | 0.00 | 0.00 | 29 | 1008.0 |
| 20260505215018 | 82 | 234 | 3.0 | 5.0 | 0.00 | 0.00 | 0.00 | 29 | 1007.9 |
| 20260505214930 | 82 | 207 | 7.0 | 12.0 | 0.00 | 0.00 | 0.00 | 29 | 1008.1 |
| 20260505214826 | 82 | 206 | 7.0 | 15.0 | 0.00 | 0.00 | 0.00 | 29 | 1008.0 |
| 20260505214721 | 82 | 201 | 8.0 | 15.0 | 0.00 | 0.00 | 0.00 | 29 | 1007.9 |
| 20260505214617 | 82 | 204 | 4.0 | 6.0 | 0.00 | 0.00 | 0.00 | 29 | 1008.1 |
| 20260505214549 | 82 | 225 | 4.0 | 9.0 | 0.00 | 0.00 | 0.00 | 29 | 1008.0 |
| 20260505214424 | 82 | 197 | 8.0 | 13.0 | 0.00 | 0.00 | 0.00 | 28 | 1007.9 |
| 20260505214340 | 82 | 204 | 10.0 | 16.0 | 0.00 | 0.00 | 0.00 | 29 | 1008.2 |
| 20260505214215 | 82 | 214 | 6.0 | 15.0 | 0.00 | 0.00 | 0.00 | 29 | 1008.2 |
| 20260505214127 | 82 | 207 | 7.0 | 11.0 | 0.00 | 0.00 | 0.00 | 30 | 1007.9 |
| 20260505214042 | 82 | 207 | 5.0 | 8.0 | 0.00 | 0.00 | 0.00 | 29 | 1008.1 |
| 20260505213938 | 82 | 215 | 7.0 | 15.0 | 0.00 | 0.00 | 0.00 | 29 | 1008.0 |
| 20260505213830 | 82 | 200 | 9.0 | 15.0 | 0.00 | 0.00 | 0.00 | 29 | 1007.9 |
| 20260505213725 | 82 | 208 | 6.0 | 13.0 | 0.00 | 0.00 | 0.00 | 29 | 1008.0 |
| 20260505213621 | 82 | 191 | 8.0 | 13.0 | 0.00 | 0.00 | 0.00 | 28 | 1008.0 |
| 20260505213517 | 82 | 204 | 4.0 | 7.0 | 0.00 | 0.00 | 0.00 | 29 | 1008.2 |
| 20260505213428 | 82 | 224 | 4.0 | 11.0 | 0.00 | 0.00 | 0.00 | 29 | 1008.0 |
| 20260505213344 | 82 | 230 | 7.0 | 12.0 | 0.00 | 0.00 | 0.00 | 29 | 1008.0 |
| 20260505213219 | 82 | 215 | 9.0 | 14.0 | 0.00 | 0.00 | 0.00 | 30 | 1008.2 |
| 20260505213131 | 82 | 221 | 8.0 | 14.0 | 0.00 | 0.00 | 0.00 | 30 | 1008.0 |
| 20260505213026 | 82 | 216 | 6.0 | 12.0 | 0.00 | 0.00 | 0.00 | 30 | 1007.9 |
| 20260505212922 | 83 | 240 | 5.0 | 11.0 | 0.00 | 0.00 | 0.00 | 30 | 1007.8 |
| 20260505212818 | 83 | 204 | 8.0 | 12.0 | 0.00 | 0.00 | 0.00 | 30 | 1007.9 |
| 20260505212749 | 83 | 213 | 5.0 | 10.0 | 0.00 | 0.00 | 0.00 | 31 | 1008.0 |
| 20260505212625 | 83 | 199 | 5.0 | 6.0 | 0.00 | 0.00 | 0.00 | 31 | 1007.8 |
| 20260505212520 | 83 | 208 | 7.0 | 10.0 | 0.00 | 0.00 | 0.00 | 30 | 1008.0 |
| 20260505212416 | 83 | 212 | 5.0 | 7.0 | 0.00 | 0.00 | 0.00 | 31 | 1007.9 |
| 20260505212328 | 83 | 213 | 3.0 | 4.0 | 0.00 | 0.00 | 0.00 | 31 | 1007.8 |
| 20260505212223 | 83 | 213 | 2.0 | 5.0 | 0.00 | 0.00 | 0.00 | 31 | 1007.8 |
| 20260505212119 | 83 | 211 | 6.0 | 8.0 | 0.00 | 0.00 | 0.00 | 30 | 1007.8 |
| 20260505212031 | 83 | 222 | 6.0 | 13.0 | 0.00 | 0.00 | 0.00 | 30 | 1007.8 |
| 20260505211926 | 83 | 209 | 7.0 | 12.0 | 0.00 | 0.00 | 0.00 | 30 | 1007.9 |
| 20260505211821 | 83 | 218 | 8.0 | 13.0 | 0.00 | 0.00 | 0.00 | 30 | 1007.7 |
| 20260505211716 | 83 | 187 | 4.0 | 7.0 | 0.00 | 0.00 | 0.00 | 30 | 1007.9 |
| 20260505211628 | 83 | 247 | 4.0 | 14.0 | 0.00 | 0.00 | 0.00 | 30 | 1007.7 |
| 20260505211523 | 83 | 215 | 10.0 | 14.0 | 0.00 | 0.00 | 0.00 | 30 | 1007.9 |
| 20260505211418 | 83 | 207 | 11.0 | 15.0 | 0.00 | 0.00 | 0.00 | 30 | 1007.8 |
| 20260505211349 | 83 | 224 | 7.0 | 13.0 | 0.00 | 0.00 | 0.00 | 30 | 1007.8 |
| 20260505211225 | 83 | 204 | 5.0 | 8.0 | 0.00 | 0.00 | 0.00 | 30 | 1007.7 |
| 20260505211120 | 83 | 232 | 7.0 | 9.0 | 0.00 | 0.00 | 0.00 | 30 | 1008.0 |
| 20260505211016 | 83 | 215 | 4.0 | 8.0 | 0.00 | 0.00 | 0.00 | 31 | 1007.9 |
| 20260505210927 | 83 | 221 | 3.0 | 8.0 | 0.00 | 0.00 | 0.00 | 30 | 1007.9 |
| 20260505210843 | 83 | 222 | 6.0 | 12.0 | 0.00 | 0.00 | 0.00 | 30 | 1007.8 |
| 20260505210719 | 83 | 253 | 6.0 | 12.0 | 0.00 | 0.00 | 0.00 | 30 | 1007.8 |
| 20260505210710 | 83 | 218 | 6.0 | 8.0 | 0.00 | 0.00 | 0.00 | 31 | 1008.0 |
| 20260505210526 | 83 | 220 | 6.0 | 11.0 | 0.00 | 0.00 | 0.00 | 31 | 1007.7 |
| 20260505210422 | 83 | 214 | 7.0 | 9.0 | 0.00 | 0.00 | 0.00 | 32 | 1007.8 |
| 20260505210317 | 83 | 209 | 7.0 | 11.0 | 0.00 | 0.00 | 0.00 | 31 | 1008.1 |
| 20260505210229 | 83 | 239 | 5.0 | 10.0 | 0.00 | 0.00 | 0.00 | 31 | 1007.9 |
| 20260505210124 | 83 | 203 | 7.0 | 10.0 | 0.00 | 0.00 | 0.00 | 31 | 1007.8 |
| 20260505210020 | 83 | 210 | 5.0 | 10.0 | 0.00 | 0.00 | 0.00 | 31 | 1007.7 |
| 20260505205916 | 83 | 216 | 9.0 | 15.0 | 0.00 | 0.00 | 0.00 | 31 | 1007.9 |
| 20260505205827 | 83 | 214 | 5.0 | 9.0 | 0.00 | 0.00 | 0.00 | 32 | 1007.8 |
| 20260505205723 | 83 | 208 | 6.0 | 11.0 | 0.00 | 0.00 | 0.00 | 32 | 1007.7 |
| 20260505205618 | 82 | 205 | 5.0 | 7.0 | 0.00 | 0.00 | 0.00 | 31 | 1007.9 |
| 20260505205530 | 82 | 224 | 5.0 | 8.0 | 0.00 | 0.00 | 0.00 | 32 | 1007.8 |
| 20260505205426 | 83 | 206 | 5.0 | 11.0 | 0.00 | 0.00 | 0.00 | 31 | 1007.8 |
| 20260505205321 | 83 | 222 | 8.0 | 20.0 | 0.00 | 0.00 | 0.00 | 30 | 1007.8 |
| 20260505205217 | 83 | 219 | 8.0 | 15.0 | 0.00 | 0.00 | 0.00 | 30 | 1007.9 |
| 20260505205128 | 83 | 211 | 9.0 | 15.0 | 0.00 | 0.00 | 0.00 | 31 | 1007.7 |
| 20260505205024 | 83 | 213 | 10.0 | 16.0 | 0.00 | 0.00 | 0.00 | 30 | 1007.7 |
| 20260505204919 | 83 | 218 | 8.0 | 12.0 | 0.00 | 0.00 | 0.00 | 31 | 1007.8 |
| 20260505204835 | 83 | 217 | 7.0 | 12.0 | 0.00 | 0.00 | 0.00 | 31 | 1008.0 |
| 20260505204727 | 83 | 209 | 8.0 | 12.0 | 0.00 | 0.00 | 0.00 | 32 | 1007.8 |
| 20260505204622 | 83 | 212 | 8.0 | 15.0 | 0.00 | 0.00 | 0.00 | 31 | 1007.9 |
| 20260505204518 | 83 | 273 | 8.0 | 9.0 | 0.00 | 0.00 | 0.00 | 31 | 1007.7 |
| 20260505204429 | 83 | 222 | 5.0 | 10.0 | 0.00 | 0.00 | 0.00 | 32 | 1007.9 |
| 20260505204325 | 83 | 215 | 6.0 | 11.0 | 0.00 | 0.00 | 0.00 | 32 | 1007.7 |
| 20260505204221 | 83 | 206 | 7.0 | 9.0 | 0.00 | 0.00 | 0.00 | 32 | 1007.8 |
| 20260505204116 | 83 | 199 | 5.0 | 8.0 | 0.00 | 0.00 | 0.00 | 32 | 1007.9 |
| 20260505204028 | 83 | 206 | 5.0 | 9.0 | 0.00 | 0.00 | 0.00 | 32 | 1007.9 |
| 20260505203923 | 83 | 207 | 5.0 | 6.0 | 0.00 | 0.00 | 0.00 | 32 | 1008.0 |
| 20260505203819 | 83 | 226 | 4.0 | 6.0 | 0.00 | 0.00 | 0.00 | 31 | 1007.8 |
| 20260505203751 | 83 | 229 | 7.0 | 14.0 | 0.00 | 0.00 | 0.00 | 31 | 1007.9 |
| 20260505203626 | 83 | 204 | 7.0 | 15.0 | 0.00 | 0.00 | 0.00 | 31 | 1007.9 |
| 20260505203602 | 83 | 212 | 8.0 | 14.0 | 0.00 | 0.00 | 0.00 | 31 | 1008.0 |
| 20260505203417 | 84 | 216 | 6.0 | 14.0 | 0.00 | 0.00 | 0.00 | 31 | 1007.9 |
| 20260505203329 | 84 | 203 | 7.0 | 12.0 | 0.00 | 0.00 | 0.00 | 32 | 1008.0 |
| 20260505203225 | 84 | 211 | 6.0 | 9.0 | 0.00 | 0.00 | 0.00 | 32 | 1007.9 |
| 20260505203120 | 84 | 203 | 4.0 | 7.0 | 0.00 | 0.00 | 0.00 | 32 | 1007.7 |
| 20260505203016 | 83 | 222 | 7.0 | 8.0 | 0.00 | 0.00 | 0.00 | 31 | 1007.8 |
| 20260505202928 | 84 | 229 | 7.0 | 12.0 | 0.00 | 0.00 | 0.00 | 32 | 1008.1 |
| 20260505202823 | 84 | 211 | 9.0 | 14.0 | 0.00 | 0.00 | 0.00 | 32 | 1007.9 |
| 20260505202719 | 84 | 213 | 9.0 | 15.0 | 0.00 | 0.00 | 0.00 | 31 | 1008.0 |
| 20260505202630 | 84 | 205 | 7.0 | 11.0 | 0.00 | 0.00 | 0.00 | 31 | 1008.0 |
| 20260505202526 | 84 | 231 | 5.0 | 6.0 | 0.00 | 0.00 | 0.00 | 31 | 1008.0 |
| 20260505202422 | 84 | 253 | 4.0 | 6.0 | 0.00 | 0.00 | 0.00 | 31 | 1007.9 |
| 20260505202317 | 84 | 219 | 3.0 | 6.0 | 0.00 | 0.00 | 0.00 | 31 | 1007.9 |
| 20260505202229 | 84 | 248 | 6.0 | 12.0 | 0.00 | 0.00 | 0.00 | 30 | 1007.9 |
| 20260505202124 | 84 | 216 | 6.0 | 10.0 | 0.00 | 0.00 | 0.00 | 31 | 1007.7 |
| 20260505202020 | 84 | 219 | 7.0 | 12.0 | 0.00 | 0.00 | 0.00 | 31 | 1008.0 |
| 20260505201916 | 85 | 212 | 6.0 | 10.0 | 0.00 | 0.00 | 0.00 | 31 | 1008.2 |
| 20260505201827 | 85 | 236 | 5.0 | 9.0 | 0.00 | 0.00 | 0.00 | 31 | 1007.8 |
| 20260505201723 | 84 | 228 | 2.0 | 5.0 | 0.00 | 0.00 | 0.00 | 33 | 1008.0 |
| 20260505201619 | 84 | 209 | 5.0 | 6.0 | 0.00 | 0.00 | 0.00 | 33 | 1007.9 |
| 20260505201530 | 84 | 258 | 4.0 | 6.0 | 0.00 | 0.00 | 0.00 | 32 | 1008.0 |
| 20260505201426 | 84 | 252 | 3.0 | 7.0 | 0.00 | 0.00 | 0.00 | 32 | 1007.9 |
| 20260505201321 | 84 | 237 | 6.0 | 9.0 | 0.00 | 0.00 | 0.00 | 31 | 1008.0 |
| 20260505201216 | 84 | 227 | 5.0 | 8.0 | 0.00 | 0.00 | 0.00 | 32 | 1008.0 |
| 20260505201128 | 84 | 243 | 4.0 | 7.0 | 0.00 | 0.00 | 0.00 | 32 | 1008.1 |
| 20260505201024 | 84 | 212 | 4.0 | 8.0 | 0.00 | 0.00 | 0.00 | 33 | 1008.0 |
| 20260505200919 | 84 | 220 | 6.0 | 10.0 | 0.00 | 0.00 | 0.00 | 32 | 1007.9 |
| 20260505200815 | 84 | 206 | 6.0 | 11.0 | 0.00 | 0.00 | 0.00 | 32 | 1007.9 |
| 20260505200727 | 84 | 216 | 6.0 | 10.0 | 0.00 | 0.00 | 0.00 | 33 | 1008.0 |
| 20260505200623 | 84 | 227 | 7.0 | 10.0 | 0.00 | 0.00 | 0.00 | 31 | 1007.9 |
| 20260505200518 | 84 | 240 | 5.0 | 9.0 | 0.00 | 0.00 | 0.00 | 32 | 1008.1 |
| 20260505200430 | 84 | 228 | 6.0 | 9.0 | 0.00 | 0.00 | 0.00 | 32 | 1007.9 |
| 20260505200325 | 83 | 233 | 6.0 | 11.0 | 0.00 | 0.00 | 0.00 | 32 | 1007.9 |
| 20260505200241 | 84 | 224 | 8.0 | 17.0 | 0.00 | 0.00 | 0.00 | 32 | 1007.9 |
| 20260505200117 | 84 | 208 | 11.0 | 19.0 | 0.00 | 0.00 | 0.00 | 33 | 1008.0 |
| 20260505200028 | 83 | 224 | 6.0 | 10.0 | 0.00 | 0.00 | 0.00 | 32 | 1008.0 |
| 20260505195924 | 83 | 235 | 7.0 | 12.0 | 0.00 | 0.00 | 0.00 | 32 | 1008.0 |
| 20260505195819 | 83 | 226 | 6.0 | 12.0 | 0.00 | 0.00 | 0.00 | 31 | 1008.1 |
| 20260505195715 | 83 | 231 | 8.0 | 15.0 | 0.00 | 0.00 | 0.00 | 32 | 1008.1 |
| 20260505195707 | 83 | 213 | 8.0 | 12.0 | 0.00 | 0.00 | 0.00 | 32 | 1008.1 |
| 20260505195543 | 83 | 205 | 9.0 | 11.0 | 0.00 | 0.00 | 0.00 | 31 | 1008.0 |
| 20260505195418 | 84 | 205 | 9.0 | 15.0 | 0.00 | 0.00 | 0.00 | 31 | 1008.2 |
| 20260505195330 | 84 | 206 | 11.0 | 16.0 | 0.00 | 0.00 | 0.00 | 31 | 1008.1 |
| 20260505195245 | 84 | 220 | 6.0 | 9.0 | 0.00 | 0.00 | 0.00 | 32 | 1008.1 |
| 20260505195121 | 84 | 223 | 7.0 | 12.0 | 0.00 | 0.00 | 0.00 | 31 | 1008.3 |
| 20260505195017 | 84 | 204 | 9.0 | 17.0 | 0.00 | 0.00 | 0.00 | 32 | 1008.2 |
| 20260505194948 | 84 | 203 | 10.0 | 17.0 | 0.00 | 0.00 | 0.00 | 31 | 1008.2 |
| 20260505194824 | 84 | 204 | 9.0 | 13.0 | 0.00 | 0.00 | 0.00 | 31 | 1008.2 |
| 20260505194719 | 84 | 210 | 7.0 | 9.0 | 0.00 | 0.00 | 0.00 | 30 | 1008.2 |
| 20260505194651 | 85 | 268 | 4.0 | 10.0 | 0.00 | 0.00 | 0.00 | 32 | 1008.3 |
| 20260505194526 | 85 | 228 | 5.0 | 10.0 | 0.00 | 0.00 | 0.00 | 32 | 1008.4 |
| 20260505194422 | 85 | 220 | 3.0 | 5.0 | 0.00 | 0.00 | 0.00 | 32 | 1008.2 |
| 20260505194318 | 85 | 244 | 3.0 | 5.0 | 0.00 | 0.00 | 0.00 | 33 | 1008.1 |
| 20260505194249 | 84 | 216 | 3.0 | 5.0 | 0.00 | 0.00 | 0.00 | 33 | 1008.3 |
| 20260505194205 | 84 | 216 | 4.0 | 5.0 | 0.00 | 0.00 | 0.00 | 32 | 1008.4 |
| 20260505194020 | 84 | 219 | 5.0 | 9.0 | 0.00 | 0.00 | 0.00 | 33 | 1008.4 |
| 20260505193916 | 84 | 236 | 6.0 | 9.0 | 0.00 | 0.00 | 0.00 | 32 | 1008.3 |
| 20260505193828 | 84 | 233 | 4.0 | 11.0 | 0.00 | 0.00 | 0.00 | 32 | 1008.2 |
| 20260505193723 | 84 | 206 | 8.0 | 16.0 | 0.00 | 0.00 | 0.00 | 32 | 1008.3 |
| 20260505193619 | 84 | 201 | 10.0 | 13.0 | 0.00 | 0.00 | 0.00 | 33 | 1008.2 |
| 20260505193531 | 84 | 217 | 9.0 | 14.0 | 0.00 | 0.00 | 0.00 | 32 | 1008.3 |
| 20260505193426 | 84 | 218 | 5.0 | 9.0 | 0.00 | 0.00 | 0.00 | 32 | 1008.4 |
| 20260505193322 | 84 | 219 | 8.0 | 13.0 | 0.00 | 0.00 | 0.00 | 32 | 1008.3 |
| 20260505193237 | 84 | 220 | 7.0 | 12.0 | 0.00 | 0.00 | 0.00 | 34 | 1008.4 |
| 20260505193129 | 84 | 202 | 4.0 | 5.0 | 0.00 | 0.00 | 0.00 | 33 | 1008.2 |
| 20260505193025 | 84 | 232 | 4.0 | 9.0 | 0.00 | 0.00 | 0.00 | 34 | 1008.3 |
| 20260505192920 | 84 | 197 | 8.0 | 10.0 | 0.00 | 0.00 | 0.00 | 32 | 1008.3 |
| 20260505192836 | 84 | 229 | 7.0 | 11.0 | 0.00 | 0.00 | 0.00 | 33 | 1008.3 |
| 20260505192727 | 84 | 239 | 7.0 | 12.0 | 0.00 | 0.00 | 0.00 | 32 | 1008.2 |
| 20260505192623 | 84 | 214 | 5.0 | 8.0 | 0.00 | 0.00 | 0.00 | 34 | 1008.3 |
| 20260505192539 | 84 | 214 | 4.0 | 6.0 | 0.00 | 0.00 | 0.00 | 34 | 1008.3 |
| 20260505192430 | 84 | 209 | 5.0 | 10.0 | 0.00 | 0.00 | 0.00 | 33 | 1008.5 |
| 20260505192326 | 84 | 210 | 7.0 | 11.0 | 0.00 | 0.00 | 0.00 | 33 | 1008.4 |
| 20260505192222 | 84 | 206 | 7.0 | 10.0 | 0.00 | 0.00 | 0.00 | 33 | 1008.4 |
| 20260505192117 | 84 | 260 | 5.0 | 7.0 | 0.00 | 0.00 | 0.00 | 33 | 1008.3 |
| 20260505192028 | 84 | 235 | 6.0 | 12.0 | 0.00 | 0.00 | 0.00 | 33 | 1008.7 |
| 20260505191924 | 84 | 207 | 10.0 | 14.0 | 0.00 | 0.00 | 0.00 | 34 | 1008.6 |
| 20260505191820 | 84 | 246 | 5.0 | 8.0 | 0.00 | 0.00 | 0.00 | 33 | 1008.7 |
| 20260505191716 | 84 | 247 | 4.0 | 8.0 | 0.00 | 0.00 | 0.00 | 33 | 1008.6 |
| 20260505191627 | 84 | 222 | 6.0 | 8.0 | 0.00 | 0.00 | 0.00 | 34 | 1008.7 |
| 20260505191523 | 84 | 228 | 3.0 | 7.0 | 0.00 | 0.00 | 0.00 | 34 | 1008.8 |
| 20260505191418 | 83 | 210 | 6.0 | 9.0 | 0.00 | 0.00 | 0.00 | 34 | 1008.7 |
| 20260505191330 | 83 | 218 | 6.0 | 10.0 | 0.00 | 0.00 | 0.00 | 34 | 1008.7 |
| 20260505191226 | 84 | 210 | 9.0 | 12.0 | 0.00 | 0.00 | 0.00 | 33 | 1008.8 |
| 20260505191121 | 84 | 207 | 7.0 | 12.0 | 0.00 | 0.00 | 0.00 | 32 | 1008.8 |
| 20260505191017 | 84 | 230 | 5.0 | 9.0 | 0.00 | 0.00 | 0.00 | 33 | 1008.9 |
| 20260505190948 | 84 | 216 | 6.0 | 10.0 | 0.00 | 0.00 | 0.00 | 33 | 1008.9 |
| 20260505190824 | 84 | 241 | 5.0 | 10.0 | 0.00 | 0.00 | 0.00 | 33 | 1009.0 |
| 20260505190720 | 84 | 293 | 5.0 | 9.0 | 0.00 | 0.00 | 0.00 | 33 | 1009.1 |
| 20260505190615 | 84 | 221 | 4.0 | 8.0 | 0.00 | 0.00 | 0.00 | 34 | 1009.0 |
| 20260505190527 | 84 | 210 | 7.0 | 11.0 | 0.00 | 0.00 | 0.00 | 33 | 1008.9 |
| 20260505190423 | 84 | 210 | 5.0 | 8.0 | 0.00 | 0.00 | 0.00 | 34 | 1009.2 |
| 20260505190318 | 84 | 217 | 7.0 | 13.0 | 0.00 | 0.00 | 0.00 | 34 | 1009.1 |
| 20260505190230 | 84 | 203 | 8.0 | 11.0 | 0.00 | 0.00 | 0.00 | 35 | 1009.0 |
| 20260505190206 | 84 | 214 | 5.0 | 6.0 | 0.00 | 0.00 | 0.00 | 36 | 1008.7 |
| 20260505190021 | 84 | 232 | 3.0 | 5.0 | 0.00 | 0.00 | 0.00 | 37 | 1008.8 |
| 20260505185917 | 84 | 215 | 3.0 | 6.0 | 0.00 | 0.00 | 0.00 | 37 | 1008.7 |
| 20260505185828 | 83 | 212 | 5.0 | 9.0 | 0.00 | 0.00 | 0.00 | 35 | 1008.9 |
| 20260505185724 | 84 | 209 | 6.0 | 9.0 | 0.00 | 0.00 | 0.00 | 35 | 1009.0 |
| 20260505185619 | 84 | 219 | 6.0 | 10.0 | 0.00 | 0.00 | 0.00 | 36 | 1008.8 |
| 20260505185515 | 84 | 253 | 4.0 | 6.0 | 0.00 | 0.00 | 0.00 | 36 | 1008.9 |
| 20260505185427 | 83 | 213 | 4.0 | 6.0 | 0.00 | 0.00 | 0.00 | 36 | 1008.9 |
| 20260505185322 | 83 | 206 | 5.0 | 9.0 | 0.00 | 0.00 | 0.00 | 36 | 1009.0 |
| 20260505185218 | 83 | 213 | 6.0 | 10.0 | 0.00 | 0.00 | 0.00 | 35 | 1008.9 |
| 20260505185130 | 83 | 215 | 6.0 | 10.0 | 0.00 | 0.00 | 0.00 | 36 | 1009.0 |
| 20260505185025 | 83 | 221 | 5.0 | 10.0 | 0.00 | 0.00 | 0.00 | 34 | 1008.9 |
| 20260505185001 | 83 | 207 | 4.0 | 8.0 | 0.00 | 0.00 | 0.00 | 35 | 1009.0 |
| 20260505184816 | 83 | 202 | 4.0 | 6.0 | 0.00 | 0.00 | 0.00 | 35 | 1009.2 |
| 20260505184728 | 83 | 217 | 4.0 | 9.0 | 0.00 | 0.00 | 0.00 | 34 | 1009.3 |
| 20260505184623 | 83 | 201 | 6.0 | 9.0 | 0.00 | 0.00 | 0.00 | 35 | 1009.2 |
| 20260505184519 | 83 | 202 | 6.0 | 8.0 | 0.00 | 0.00 | 0.00 | 34 | 1009.2 |
| 20260505184451 | 83 | 211 | 5.0 | 10.0 | 0.00 | 0.00 | 0.00 | 35 | 1009.4 |
| 20260505184326 | 83 | 239 | 5.0 | 11.0 | 0.00 | 0.00 | 0.00 | 34 | 1009.4 |
| 20260505184222 | 83 | 230 | 4.0 | 9.0 | 0.00 | 0.00 | 0.00 | 35 | 1009.4 |
| 20260505184117 | 83 | 208 | 6.0 | 9.0 | 0.00 | 0.00 | 0.00 | 35 | 1009.4 |
| 20260505184029 | 83 | 196 | 7.0 | 11.0 | 0.00 | 0.00 | 0.00 | 34 | 1009.4 |
| 20260505183924 | 83 | 211 | 6.0 | 13.0 | 0.00 | 0.00 | 0.00 | 34 | 1009.3 |
| 20260505183900 | 83 | 216 | 7.0 | 16.0 | 0.00 | 0.00 | 0.00 | 34 | 1009.2 |
| 20260505183736 | 84 | 198 | 9.0 | 16.0 | 0.00 | 0.00 | 0.00 | 34 | 1009.4 |
| 20260505183627 | 84 | 212 | 6.0 | 11.0 | 0.00 | 0.00 | 0.00 | 35 | 1009.5 |
| 20260505183523 | 84 | 196 | 6.0 | 11.0 | 0.00 | 0.00 | 0.00 | 34 | 1009.2 |
| 20260505183419 | 83 | 216 | 4.0 | 9.0 | 0.00 | 0.00 | 0.00 | 36 | 1009.4 |
| 20260505183346 | 83 | 213 | 5.0 | 12.0 | 0.00 | 0.00 | 0.00 | 34 | 1009.2 |
| 20260505183122 | 83 | 226 | 6.0 | 11.0 | 0.00 | 0.00 | 0.00 | 35 | 1009.4 |
| 20260505183017 | 83 | 226 | 9.0 | 11.0 | 0.00 | 0.00 | 0.00 | 34 | 1009.5 |
| 20260505182949 | 83 | 204 | 3.0 | 6.0 | 0.00 | 0.00 | 0.00 | 36 | 1009.5 |
| 20260505182844 | 83 | 232 | 5.0 | 8.0 | 0.00 | 0.00 | 0.00 | 36 | 1009.6 |
| 20260505182720 | 83 | 214 | 4.0 | 6.0 | 0.00 | 0.00 | 0.00 | 37 | 1009.4 |
| 20260505182616 | 82 | 229 | 5.0 | 9.0 | 0.00 | 0.00 | 0.00 | 36 | 1009.2 |
| 20260505182527 | 82 | 202 | 7.0 | 11.0 | 0.00 | 0.00 | 0.00 | 35 | 1009.4 |
| 20260505182423 | 82 | 206 | 8.0 | 13.0 | 0.00 | 0.00 | 0.00 | 36 | 1009.2 |
| 20260505182338 | 83 | 225 | 8.0 | 13.0 | 0.00 | 0.00 | 0.00 | 35 | 1009.6 |
| 20260505182230 | 83 | 207 | 9.0 | 14.0 | 0.00 | 0.00 | 0.00 | 37 | 1009.2 |
| 20260505182125 | 83 | 200 | 7.0 | 18.0 | 0.00 | 0.00 | 0.00 | 36 | 1009.5 |
| 20260505182021 | 83 | 201 | 8.0 | 14.0 | 0.00 | 0.00 | 0.00 | 36 | 1009.3 |
| 20260505181917 | 83 | 212 | 7.0 | 12.0 | 0.00 | 0.00 | 0.00 | 36 | 1009.4 |
| 20260505181828 | 83 | 210 | 4.0 | 8.0 | 0.00 | 0.00 | 0.00 | 37 | 1009.5 |
| 20260505181744 | 83 | 219 | 3.0 | 5.0 | 0.00 | 0.00 | 0.00 | 37 | 1009.4 |
| 20260505181620 | 83 | 223 | 4.0 | 6.0 | 0.00 | 0.00 | 0.00 | 37 | 1009.4 |
| 20260505181535 | 83 | 275 | 6.0 | 11.0 | 0.00 | 0.00 | 0.00 | 37 | 1009.6 |
| 20260505181447 | 84 | 199 | 9.0 | 16.0 | 0.00 | 0.00 | 0.00 | 37 | 1009.5 |
| 20260505181322 | 83 | 201 | 6.0 | 9.0 | 0.00 | 0.00 | 0.00 | 38 | 1009.5 |
| 20260505181218 | 83 | 217 | 4.0 | 7.0 | 0.00 | 0.00 | 0.00 | 37 | 1009.7 |
| 20260505181130 | 83 | 237 | 3.0 | 5.0 | 0.00 | 0.00 | 0.00 | 38 | 1009.4 |
| 20260505181045 | 83 | 208 | 5.0 | 9.0 | 0.00 | 0.00 | 0.00 | 39 | 1009.5 |
| 20260505180921 | 83 | 227 | 3.0 | 5.0 | 0.00 | 0.00 | 0.00 | 38 | 1009.6 |
| 20260505180836 | 83 | 218 | 5.0 | 9.0 | 0.00 | 0.00 | 0.00 | 39 | 1009.5 |
| 20260505180728 | 83 | 200 | 5.0 | 8.0 | 0.00 | 0.00 | 0.00 | 39 | 1009.5 |
| 20260505180623 | 83 | 214 | 5.0 | 7.0 | 0.00 | 0.00 | 0.00 | 39 | 1009.5 |
| 20260505180519 | 83 | 224 | 4.0 | 4.0 | 0.00 | 0.00 | 0.00 | 40 | 1009.5 |
| 20260505180431 | 83 | 251 | 5.0 | 10.0 | 0.00 | 0.00 | 0.00 | 37 | 1009.4 |
| 20260505180346 | 82 | 199 | 6.0 | 10.0 | 0.00 | 0.00 | 0.00 | 40 | 1009.6 |
| 20260505180222 | 82 | 211 | 5.0 | 7.0 | 0.00 | 0.00 | 0.00 | 40 | 1009.4 |
| 20260505180117 | 82 | 203 | 7.0 | 12.0 | 0.00 | 0.00 | 0.00 | 39 | 1009.4 |
| 20260505180109 | 82 | 222 | 8.0 | 14.0 | 0.00 | 0.00 | 0.00 | 38 | 1009.7 |
| 20260505175944 | 82 | 196 | 7.0 | 10.0 | 0.00 | 0.00 | 0.00 | 38 | 1009.6 |
| 20260505175820 | 82 | 230 | 5.0 | 8.0 | 0.00 | 0.00 | 0.00 | 39 | 1009.6 |
| 20260505175755 | 82 | 216 | 4.0 | 13.0 | 0.00 | 0.00 | 0.00 | 39 | 1009.6 |
| 20260505175647 | 82 | 205 | 10.0 | 13.0 | 0.00 | 0.00 | 0.00 | 39 | 1009.7 |
| 20260505175523 | 82 | 203 | 4.0 | 8.0 | 0.00 | 0.00 | 0.00 | 40 | 1009.5 |
| 20260505175418 | 82 | 202 | 5.0 | 8.0 | 0.00 | 0.00 | 0.00 | 39 | 1009.7 |
| 20260505175330 | 82 | 213 | 5.0 | 8.0 | 0.00 | 0.00 | 0.00 | 40 | 1009.6 |
| 20260505175226 | 82 | 225 | 4.0 | 5.0 | 0.00 | 0.00 | 0.00 | 41 | 1009.8 |
| 20260505175141 | 82 | 214 | 5.0 | 7.0 | 0.00 | 0.00 | 0.00 | 41 | 1009.7 |
| 20260505175017 | 82 | 212 | 6.0 | 9.0 | 0.00 | 0.00 | 0.00 | 40 | 1009.8 |
| 20260505174929 | 82 | 217 | 5.0 | 10.0 | 0.00 | 0.00 | 0.00 | 40 | 1009.8 |
| 20260505174824 | 82 | 211 | 2.0 | 8.0 | 0.00 | 0.00 | 0.00 | 40 | 1009.8 |
| 20260505174720 | 82 | 205 | 8.0 | 10.0 | 0.00 | 0.00 | 0.00 | 39 | 1009.8 |
| 20260505174615 | 82 | 202 | 4.0 | 6.0 | 0.00 | 0.00 | 0.00 | 40 | 1009.7 |
| 20260505174527 | 82 | 210 | 7.0 | 10.0 | 0.00 | 0.00 | 0.00 | 40 | 1009.7 |
| 20260505174422 | 82 | 211 | 5.0 | 11.0 | 0.00 | 0.00 | 0.00 | 40 | 1009.6 |
| 20260505174318 | 83 | 213 | 6.0 | 10.0 | 0.00 | 0.00 | 0.00 | 39 | 1009.8 |
| 20260505174229 | 83 | 211 | 5.0 | 11.0 | 0.00 | 0.00 | 0.00 | 39 | 1009.6 |
| 20260505174125 | 83 | 210 | 4.0 | 6.0 | 0.00 | 0.00 | 0.00 | 40 | 1009.9 |
| 20260505174021 | 83 | 205 | 4.0 | 6.0 | 0.00 | 0.00 | 0.00 | 40 | 1009.7 |
| 20260505173916 | 83 | 219 | 4.0 | 6.0 | 0.00 | 0.00 | 0.00 | 41 | 1009.7 |
| 20260505173848 | 83 | 210 | 5.0 | 7.0 | 0.00 | 0.00 | 0.00 | 39 | 1009.7 |
| 20260505173723 | 83 | 209 | 5.0 | 8.0 | 0.00 | 0.00 | 0.00 | 41 | 1009.8 |
| 20260505173619 | 83 | 206 | 5.0 | 6.0 | 0.00 | 0.00 | 0.00 | 43 | 1009.8 |
| 20260505173531 | 82 | 230 | 4.0 | 5.0 | 0.00 | 0.00 | 0.00 | 41 | 1009.7 |
| 20260505173426 | 82 | 214 | 4.0 | 6.0 | 0.00 | 0.00 | 0.00 | 41 | 1009.7 |
| 20260505173322 | 82 | 238 | 4.0 | 6.0 | 0.00 | 0.00 | 0.00 | 41 | 1009.7 |
| 20260505173217 | 82 | 216 | 8.0 | 10.0 | 0.00 | 0.00 | 0.00 | 40 | 1009.7 |
| 20260505173129 | 82 | 245 | 4.0 | 7.0 | 0.00 | 0.00 | 0.00 | 40 | 1009.9 |
| 20260505173045 | 82 | 208 | 5.0 | 7.0 | 0.00 | 0.00 | 0.00 | 41 | 1009.7 |
| 20260505172920 | 82 | 219 | 4.0 | 7.0 | 0.00 | 0.00 | 0.00 | 40 | 1009.8 |
| 20260505172816 | 82 | 209 | 4.0 | 5.0 | 0.00 | 0.00 | 0.00 | 41 | 1009.9 |
| 20260505172727 | 82 | 222 | 4.0 | 6.0 | 0.00 | 0.00 | 0.00 | 42 | 1009.9 |
| 20260505172623 | 82 | 231 | 5.0 | 9.0 | 0.00 | 0.00 | 0.00 | 41 | 1009.8 |
| 20260505172518 | 83 | 201 | 6.0 | 10.0 | 0.00 | 0.00 | 0.00 | 40 | 1009.8 |
| 20260505172430 | 83 | 205 | 4.0 | 6.0 | 0.00 | 0.00 | 0.00 | 40 | 1009.7 |
| 20260505172325 | 83 | 212 | 3.0 | 6.0 | 0.00 | 0.00 | 0.00 | 41 | 1009.8 |
| 20260505172221 | 83 | 202 | 3.0 | 4.0 | 0.00 | 0.00 | 0.00 | 42 | 1010.0 |
| 20260505172117 | 82 | 234 | 2.0 | 4.0 | 0.00 | 0.00 | 0.00 | 40 | 1010.0 |
| 20260505172028 | 82 | 230 | 4.0 | 6.0 | 0.00 | 0.00 | 0.00 | 42 | 1010.0 |
| 20260505171924 | 82 | 215 | 3.0 | 7.0 | 0.00 | 0.00 | 0.00 | 43 | 1010.0 |
| 20260505171820 | 82 | 204 | 8.0 | 12.0 | 0.00 | 0.00 | 0.00 | 41 | 1010.0 |
| 20260505171735 | 82 | 210 | 5.0 | 7.0 | 0.00 | 0.00 | 0.00 | 42 | 1009.9 |
| 20260505171627 | 82 | 208 | 5.0 | 7.0 | 0.00 | 0.00 | 0.00 | 41 | 1010.1 |
| 20260505171522 | 82 | 212 | 5.0 | 5.0 | 0.00 | 0.00 | 0.00 | 43 | 1009.9 |
| 20260505171418 | 82 | 202 | 4.0 | 5.0 | 0.00 | 0.00 | 0.00 | 43 | 1009.8 |
| 20260505171329 | 82 | 214 | 4.0 | 6.0 | 0.00 | 0.00 | 0.00 | 43 | 1010.0 |
| 20260505171224 | 82 | 209 | 4.0 | 9.0 | 0.00 | 0.00 | 0.00 | 41 | 1009.9 |
| 20260505171120 | 83 | 204 | 6.0 | 7.0 | 0.00 | 0.00 | 0.00 | 41 | 1009.9 |
| 20260505171016 | 82 | 197 | 4.0 | 6.0 | 0.00 | 0.00 | 0.00 | 41 | 1009.9 |
| 20260505170927 | 82 | 190 | 3.0 | 4.0 | 0.00 | 0.00 | 0.00 | 40 | 1009.8 |
| 20260505170822 | 83 | 201 | 4.0 | 7.0 | 0.00 | 0.00 | 0.00 | 40 | 1010.0 |
| 20260505170718 | 82 | 296 | 3.0 | 6.0 | 0.00 | 0.00 | 0.00 | 40 | 1009.8 |
| 20260505170629 | 82 | 219 | 3.0 | 4.0 | 0.00 | 0.00 | 0.00 | 40 | 1009.9 |
| 20260505170545 | 82 | 210 | 4.0 | 6.0 | 0.00 | 0.00 | 0.00 | 40 | 1009.9 |
| 20260505170500 | 82 | 285 | 3.0 | 4.0 | 0.00 | 0.00 | 0.00 | 40 | 1010.1 |
| 20260505170316 | 82 | 266 | 3.0 | 7.0 | 0.00 | 0.00 | 0.00 | 40 | 1010.1 |
| 20260505170227 | 82 | 250 | 6.0 | 9.0 | 0.00 | 0.00 | 0.00 | 39 | 1010.1 |
| 20260505170123 | 82 | 209 | 6.0 | 8.0 | 0.00 | 0.00 | 0.00 | 42 | 1010.1 |
| 20260505170019 | 82 | 202 | 4.0 | 5.0 | 0.00 | 0.00 | 0.00 | 42 | 1010.1 |
| 20260505165950 | 82 | 208 | 5.0 | 9.0 | 0.00 | 0.00 | 0.00 | 41 | 1010.0 |
| 20260505165826 | 81 | 261 | 4.0 | 7.0 | 0.00 | 0.00 | 0.00 | 41 | 1010.3 |
| 20260505165721 | 81 | 210 | 6.0 | 7.0 | 0.00 | 0.00 | 0.00 | 40 | 1010.0 |
| 20260505165617 | 82 | 205 | 6.0 | 9.0 | 0.00 | 0.00 | 0.00 | 42 | 1010.1 |
| 20260505165529 | 81 | 227 | 3.0 | 5.0 | 0.00 | 0.00 | 0.00 | 43 | 1010.1 |
| 20260505165424 | 81 | 256 | 3.0 | 4.0 | 0.00 | 0.00 | 0.00 | 42 | 1010.2 |
| 20260505165319 | 81 | 199 | 4.0 | 9.0 | 0.00 | 0.00 | 0.00 | 42 | 1010.2 |
| 20260505165215 | 81 | 196 | 3.0 | 8.0 | 0.00 | 0.00 | 0.00 | 42 | 1010.2 |
| 20260505165127 | 81 | 202 | 5.0 | 9.0 | 0.00 | 0.00 | 0.00 | 42 | 1010.2 |
| 20260505165022 | 81 | 190 | 4.0 | 5.0 | 0.00 | 0.00 | 0.00 | 41 | 1010.3 |
| 20260505164918 | 81 | 187 | 4.0 | 5.0 | 0.00 | 0.00 | 0.00 | 43 | 1010.1 |
| 20260505164829 | 81 | 203 | 3.0 | 7.0 | 0.00 | 0.00 | 0.00 | 42 | 1010.2 |
| 20260505164725 | 81 | 212 | 4.0 | 6.0 | 0.00 | 0.00 | 0.00 | 44 | 1010.2 |
| 20260505164620 | 81 | 217 | 4.0 | 10.0 | 0.00 | 0.00 | 0.00 | 41 | 1010.4 |
| 20260505164516 | 81 | 232 | 4.0 | 6.0 | 0.00 | 0.00 | 0.00 | 42 | 1010.3 |
| 20260505164448 | 81 | 203 | 4.0 | 8.0 | 0.00 | 0.00 | 0.00 | 41 | 1010.4 |
| 20260505164343 | 81 | 203 | 5.0 | 11.0 | 0.00 | 0.00 | 0.00 | 41 | 1010.3 |
| 20260505164219 | 82 | 209 | 7.0 | 11.0 | 0.00 | 0.00 | 0.00 | 42 | 1010.4 |
| 20260505164150 | 82 | 202 | 5.0 | 8.0 | 0.00 | 0.00 | 0.00 | 42 | 1010.3 |
| 20260505164026 | 82 | 207 | 4.0 | 5.0 | 0.00 | 0.00 | 0.00 | 42 | 1010.3 |
| 20260505163922 | 82 | 296 | 4.0 | 6.0 | 0.00 | 0.00 | 0.00 | 42 | 1010.2 |
| 20260505163817 | 81 | 209 | 3.0 | 4.0 | 0.00 | 0.00 | 0.00 | 42 | 1010.4 |
| 20260505163749 | 81 | 256 | 1.0 | 4.0 | 0.00 | 0.00 | 0.00 | 42 | 1010.4 |
| 20260505163625 | 81 | 213 | 4.0 | 7.0 | 0.00 | 0.00 | 0.00 | 42 | 1010.4 |
| 20260505163520 | 81 | 199 | 2.0 | 5.0 | 0.00 | 0.00 | 0.00 | 43 | 1010.4 |
| 20260505163416 | 81 | 203 | 6.0 | 9.0 | 0.00 | 0.00 | 0.00 | 42 | 1010.3 |
| 20260505163347 | 81 | 208 | 5.0 | 9.0 | 0.00 | 0.00 | 0.00 | 42 | 1010.6 |
| 20260505163223 | 81 | 188 | 4.0 | 6.0 | 0.00 | 0.00 | 0.00 | 41 | 1010.4 |
| 20260505163118 | 80 | 198 | 3.0 | 5.0 | 0.00 | 0.00 | 0.00 | 43 | 1010.3 |
| 20260505163030 | 81 | 203 | 6.0 | 9.0 | 0.00 | 0.00 | 0.00 | 42 | 1010.5 |
| 20260505162925 | 81 | 205 | 5.0 | 9.0 | 0.00 | 0.00 | 0.00 | 42 | 1010.5 |
| 20260505162821 | 81 | 192 | 5.0 | 8.0 | 0.00 | 0.00 | 0.00 | 41 | 1010.4 |
| 20260505162716 | 81 | 204 | 4.0 | 6.0 | 0.00 | 0.00 | 0.00 | 42 | 1010.5 |
| 20260505162628 | 81 | 206 | 4.0 | 6.0 | 0.00 | 0.00 | 0.00 | 42 | 1010.5 |
| 20260505162524 | 81 | 222 | 3.0 | 9.0 | 0.00 | 0.00 | 0.00 | 42 | 1010.5 |
| 20260505162419 | 81 | 204 | 7.0 | 9.0 | 0.00 | 0.00 | 0.00 | 41 | 1010.7 |
| 20260505162315 | 81 | 201 | 5.0 | 8.0 | 0.00 | 0.00 | 0.00 | 44 | 1010.5 |
| 20260505162226 | 81 | 300 | 3.0 | 5.0 | 0.00 | 0.00 | 0.00 | 42 | 1010.4 |
| 20260505162122 | 81 | 278 | 2.0 | 4.0 | 0.00 | 0.00 | 0.00 | 42 | 1010.4 |
| 20260505162018 | 81 | 286 | 4.0 | 6.0 | 0.00 | 0.00 | 0.00 | 40 | 1010.6 |
| 20260505161930 | 81 | 213 | 2.0 | 4.0 | 0.00 | 0.00 | 0.00 | 42 | 1010.5 |
| 20260505161825 | 81 | 191 | 3.0 | 5.0 | 0.00 | 0.00 | 0.00 | 43 | 1010.5 |
| 20260505161721 | 80 | 202 | 3.0 | 5.0 | 0.00 | 0.00 | 0.00 | 44 | 1010.6 |
| 20260505161616 | 80 | 200 | 4.0 | 4.0 | 0.00 | 0.00 | 0.00 | 44 | 1010.5 |
| 20260505161528 | 80 | 208 | 5.0 | 8.0 | 0.00 | 0.00 | 0.00 | 43 | 1010.6 |
| 20260505161423 | 80 | 202 | 5.0 | 6.0 | 0.00 | 0.00 | 0.00 | 45 | 1010.5 |
| 20260505161319 | 80 | 218 | 2.0 | 4.0 | 0.00 | 0.00 | 0.00 | 45 | 1010.4 |
| 20260505161231 | 80 | 226 | 4.0 | 7.0 | 0.00 | 0.00 | 0.00 | 44 | 1010.6 |
| 20260505161126 | 80 | 207 | 5.0 | 9.0 | 0.00 | 0.00 | 0.00 | 44 | 1010.5 |
| 20260505161022 | 80 | 214 | 6.0 | 8.0 | 0.00 | 0.00 | 0.00 | 44 | 1010.6 |
| 20260505160938 | 80 | 198 | 4.0 | 5.0 | 0.00 | 0.00 | 0.00 | 42 | 1010.5 |
| 20260505160829 | 80 | 230 | 4.0 | 8.0 | 0.00 | 0.00 | 0.00 | 42 | 1010.6 |
| 20260505160745 | 80 | 223 | 3.0 | 5.0 | 0.00 | 0.00 | 0.00 | 45 | 1010.7 |
| 20260505160620 | 80 | 216 | 3.0 | 6.0 | 0.00 | 0.00 | 0.00 | 44 | 1010.9 |
| 20260505160556 | 80 | 212 | 4.0 | 5.0 | 0.00 | 0.00 | 0.00 | 44 | 1010.8 |
| 20260505160428 | 80 | 201 | 4.0 | 7.0 | 0.00 | 0.00 | 0.00 | 44 | 1010.7 |
| 20260505160343 | 80 | 214 | 5.0 | 8.0 | 0.00 | 0.00 | 0.00 | 45 | 1010.6 |
| 20260505160219 | 80 | 217 | 3.0 | 4.0 | 0.00 | 0.00 | 0.00 | 45 | 1010.7 |
| 20260505160131 | 80 | 282 | 3.0 | 6.0 | 0.00 | 0.00 | 0.00 | 44 | 1010.7 |
| 20260505153330 | 77 | 183 | 1.0 | 3.0 | 0.00 | 0.00 | 0.00 | 49 | 1011.0 |
| 20260505153225 | 78 | 201 | 3.0 | 5.0 | 0.00 | 0.00 | 0.00 | 47 | 1011.2 |
| 20260505153121 | 78 | 196 | 3.0 | 7.0 | 0.00 | 0.00 | 0.00 | 49 | 1011.0 |
| 20260505153017 | 77 | 213 | 4.0 | 8.0 | 0.00 | 0.00 | 0.00 | 49 | 1011.1 |
| 20260505152929 | 77 | 172 | 3.0 | 3.0 | 0.00 | 0.00 | 0.00 | 47 | 1011.1 |
| 20260505152844 | 77 | 210 | 3.0 | 8.0 | 0.00 | 0.00 | 0.00 | 47 | 1011.2 |
| 20260505152740 | 77 | 210 | 2.0 | 8.0 | 0.00 | 0.00 | 0.00 | 47 | 1011.1 |
| 20260505152615 | 77 | 277 | 2.0 | 4.0 | 0.00 | 0.00 | 0.00 | 46 | 1011.1 |
| 20260505152527 | 77 | 233 | 2.0 | 4.0 | 0.00 | 0.00 | 0.00 | 47 | 1011.2 |
| 20260505152423 | 77 | 197 | 4.0 | 6.0 | 0.00 | 0.00 | 0.00 | 47 | 1010.9 |
| 20260505152318 | 77 | 203 | 2.0 | 4.0 | 0.00 | 0.00 | 0.00 | 49 | 1011.0 |
| 20260505152230 | 77 | 197 | 3.0 | 3.0 | 0.00 | 0.00 | 0.00 | 48 | 1011.0 |
| 20260505152125 | 77 | 201 | 4.0 | 5.0 | 0.00 | 0.00 | 0.00 | 47 | 1011.0 |
| 20260505152021 | 77 | 242 | 2.0 | 3.0 | 0.00 | 0.00 | 0.00 | 47 | 1011.1 |
| 20260505151937 | 77 | 187 | 2.0 | 6.0 | 0.00 | 0.00 | 0.00 | 48 | 1011.0 |
| 20260505151828 | 76 | 250 | 2.0 | 4.0 | 0.00 | 0.00 | 0.00 | 49 | 1011.1 |
| 20260505151744 | 77 | 200 | 5.0 | 8.0 | 0.00 | 0.00 | 0.00 | 49 | 1010.9 |
| 20260505151619 | 77 | 201 | 6.0 | 7.0 | 0.00 | 0.00 | 0.00 | 48 | 1011.0 |
| 20260505151515 | 77 | 198 | 3.0 | 4.0 | 0.00 | 0.00 | 0.00 | 49 | 1011.1 |
| 20260505151427 | 77 | 189 | 3.0 | 4.0 | 0.00 | 0.00 | 0.00 | 48 | 1011.0 |
| 20260505151322 | 77 | 192 | 1.0 | 3.0 | 0.00 | 0.00 | 0.00 | 50 | 1011.0 |
| 20260505151218 | 77 | 213 | 2.0 | 6.0 | 0.00 | 0.00 | 0.00 | 48 | 1011.1 |
| 20260505151130 | 77 | 230 | 4.0 | 6.0 | 0.00 | 0.00 | 0.00 | 47 | 1011.0 |
| 20260505151025 | 76 | 215 | 3.0 | 6.0 | 0.00 | 0.00 | 0.00 | 50 | 1010.9 |
| 20260505150920 | 76 | 208 | 1.0 | 2.0 | 0.00 | 0.00 | 0.00 | 48 | 1011.0 |
| 20260505150816 | 76 | 208 | 2.0 | 3.0 | 0.00 | 0.00 | 0.00 | 49 | 1011.2 |
| 20260505150728 | 76 | 195 | 7.0 | 11.0 | 0.00 | 0.00 | 0.00 | 48 | 1011.3 |
| 20260505150623 | 76 | 201 | 3.0 | 4.0 | 0.00 | 0.00 | 0.00 | 50 | 1011.1 |
| 20260505150519 | 76 | 176 | 3.0 | 4.0 | 0.00 | 0.00 | 0.00 | 48 | 1011.2 |
| 20260505150431 | 76 | 184 | 3.0 | 5.0 | 0.00 | 0.00 | 0.00 | 48 | 1011.3 |
| 20260505150326 | 76 | 201 | 4.0 | 6.0 | 0.00 | 0.00 | 0.00 | 48 | 1011.3 |
| 20260505150222 | 76 | 190 | 3.0 | 5.0 | 0.00 | 0.00 | 0.00 | 50 | 1011.3 |
| 20260505150117 | 76 | 206 | 3.0 | 7.0 | 0.00 | 0.00 | 0.00 | 49 | 1011.4 |
| 20260505140615 | 72 | 192 | 3.0 | 5.0 | 0.00 | 0.00 | 0.00 | 55 | 1012.0 |
| 20260505140527 | 72 | 211 | 3.0 | 5.0 | 0.00 | 0.00 | 0.00 | 56 | 1011.8 |
| 20260505140422 | 72 | 210 | 4.0 | 6.0 | 0.00 | 0.00 | 0.00 | 58 | 1011.8 |
| 20260505140317 | 72 | 195 | 3.0 | 5.0 | 0.00 | 0.00 | 0.00 | 55 | 1011.8 |
| 20260505140229 | 72 | 196 | 4.0 | 6.0 | 0.00 | 0.00 | 0.00 | 55 | 1011.8 |
| 20260505140145 | 72 | 204 | 4.0 | 6.0 | 0.00 | 0.00 | 0.00 | 57 | 1011.7 |
| 20260505130219 | 68 | 229 | 5.0 | 6.0 | 0.00 | 0.00 | 0.00 | 59 | 1011.8 |
| 20260505130151 | 69 | 206 | 5.0 | 7.0 | 0.00 | 0.00 | 0.00 | 59 | 1011.8 |
| 20260505125031 | 67 | 212 | 3.0 | 5.0 | 0.00 | 0.00 | 0.00 | 61 | 1011.7 |
| 20260505124926 | 67 | 207 | 3.0 | 7.0 | 0.00 | 0.00 | 0.00 | 62 | 1011.8 |
| 20260505124822 | 67 | 193 | 7.0 | 13.0 | 0.00 | 0.00 | 0.00 | 62 | 1011.4 |
| 20260505124717 | 67 | 196 | 5.0 | 8.0 | 0.00 | 0.00 | 0.00 | 62 | 1011.7 |
| 20260505124629 | 67 | 191 | 5.0 | 9.0 | 0.00 | 0.00 | 0.00 | 61 | 1011.7 |
| 20260505124604 | 67 | 195 | 6.0 | 9.0 | 0.00 | 0.00 | 0.00 | 61 | 1011.7 |
| 20260505124420 | 67 | 207 | 6.0 | 6.0 | 0.00 | 0.00 | 0.00 | 61 | 1011.7 |
| 20260505124316 | 67 | 203 | 4.0 | 7.0 | 0.00 | 0.00 | 0.00 | 61 | 1011.6 |
| 20260505124228 | 67 | 194 | 6.0 | 9.0 | 0.00 | 0.00 | 0.00 | 61 | 1011.6 |
| 20260505124123 | 67 | 230 | 3.0 | 6.0 | 0.00 | 0.00 | 0.00 | 61 | 1011.6 |
| 20260505124019 | 67 | 214 | 3.0 | 5.0 | 0.00 | 0.00 | 0.00 | 62 | 1011.5 |
| 20260505123950 | 67 | 191 | 3.0 | 4.0 | 0.00 | 0.00 | 0.00 | 62 | 1011.6 |
| 20260505123826 | 67 | 199 | 3.0 | 6.0 | 0.00 | 0.00 | 0.00 | 62 | 1011.6 |
| 20260505123721 | 66 | 214 | 3.0 | 6.0 | 0.00 | 0.00 | 0.00 | 62 | 1011.6 |
| 20260505123617 | 66 | 216 | 4.0 | 5.0 | 0.00 | 0.00 | 0.00 | 63 | 1011.6 |
| 20260505123609 | 67 | 189 | 6.0 | 9.0 | 0.00 | 0.00 | 0.00 | 61 | 1011.7 |
| 20260505123424 | 66 | 215 | 3.0 | 9.0 | 0.00 | 0.00 | 0.00 | 62 | 1011.7 |
| 20260505123320 | 66 | 230 | 6.0 | 9.0 | 0.00 | 0.00 | 0.00 | 62 | 1011.7 |
| 20260505123216 | 66 | 194 | 7.0 | 10.0 | 0.00 | 0.00 | 0.00 | 62 | 1011.6 |
| 20260505123127 | 66 | 210 | 5.0 | 8.0 | 0.00 | 0.00 | 0.00 | 63 | 1011.6 |
| 20260505123123 | 66 | 204 | 7.0 | 17.0 | 0.00 | 0.00 | 0.00 | 62 | 1011.5 |
| 20260505122939 | 67 | 207 | 9.0 | 17.0 | 0.00 | 0.00 | 0.00 | 61 | 1011.5 |
| 20260505122830 | 67 | 201 | 5.0 | 9.0 | 0.00 | 0.00 | 0.00 | 62 | 1011.4 |
| 20260505122746 | 66 | 182 | 3.0 | 4.0 | 0.00 | 0.00 | 0.00 | 63 | 1011.4 |
| 20260505122621 | 66 | 203 | 4.0 | 6.0 | 0.00 | 0.00 | 0.00 | 63 | 1011.5 |
| 20260505122517 | 66 | 213 | 4.0 | 6.0 | 0.00 | 0.00 | 0.00 | 63 | 1011.6 |
| 20260505122428 | 66 | 198 | 4.0 | 10.0 | 0.00 | 0.00 | 0.00 | 62 | 1011.6 |
| 20260505122324 | 66 | 234 | 4.0 | 9.0 | 0.00 | 0.00 | 0.00 | 62 | 1011.7 |
| 20260505122220 | 66 | 197 | 5.0 | 8.0 | 0.00 | 0.00 | 0.00 | 61 | 1011.5 |
| 20260505122115 | 66 | 215 | 4.0 | 7.0 | 0.00 | 0.00 | 0.00 | 62 | 1011.4 |
| 20260505122027 | 66 | 203 | 5.0 | 8.0 | 0.00 | 0.00 | 0.00 | 62 | 1011.4 |
| 20260505121922 | 67 | 213 | 5.0 | 6.0 | 0.00 | 0.00 | 0.00 | 62 | 1011.3 |
| 20260505121818 | 67 | 249 | 4.0 | 9.0 | 0.00 | 0.00 | 0.00 | 61 | 1011.6 |
| 20260505121730 | 67 | 218 | 3.0 | 5.0 | 0.00 | 0.00 | 0.00 | 63 | 1011.5 |
| 20260505121625 | 67 | 205 | 4.0 | 6.0 | 0.00 | 0.00 | 0.00 | 63 | 1011.5 |
| 20260505121521 | 66 | 185 | 1.0 | 2.0 | 0.00 | 0.00 | 0.00 | 62 | 1011.5 |
| 20260505121417 | 66 | 204 | 1.0 | 2.0 | 0.00 | 0.00 | 0.00 | 63 | 1011.7 |
| 20260505121328 | 66 | 219 | 4.0 | 10.0 | 0.00 | 0.00 | 0.00 | 63 | 1011.8 |
| 20260505121224 | 66 | 250 | 3.0 | 10.0 | 0.00 | 0.00 | 0.00 | 63 | 1011.6 |
| 20260505121119 | 66 | 222 | 6.0 | 10.0 | 0.00 | 0.00 | 0.00 | 64 | 1011.5 |
| 20260505121031 | 66 | 194 | 7.0 | 10.0 | 0.00 | 0.00 | 0.00 | 63 | 1011.7 |
| 20260505120926 | 66 | 193 | 4.0 | 4.0 | 0.00 | 0.00 | 0.00 | 64 | 1011.7 |
| 20260505120822 | 66 | 199 | 4.0 | 7.0 | 0.00 | 0.00 | 0.00 | 64 | 1011.6 |
| 20260505120717 | 66 | 191 | 5.0 | 7.0 | 0.00 | 0.00 | 0.00 | 64 | 1011.6 |
| 20260505120649 | 66 | 206 | 3.0 | 4.0 | 0.00 | 0.00 | 0.00 | 64 | 1011.8 |
| 20260505120525 | 66 | 226 | 4.0 | 7.0 | 0.00 | 0.00 | 0.00 | 64 | 1011.7 |
| 20260505120421 | 66 | 194 | 3.0 | 5.0 | 0.00 | 0.00 | 0.00 | 65 | 1011.5 |
| 20260505120316 | 66 | 196 | 1.0 | 4.0 | 0.00 | 0.00 | 0.00 | 65 | 1011.5 |
| 20260505120228 | 66 | 234 | 2.0 | 3.0 | 0.00 | 0.00 | 0.00 | 65 | 1011.5 |
| 20260505120123 | 65 | 190 | 1.0 | 4.0 | 0.00 | 0.00 | 0.00 | 66 | 1011.5 |
| 20260505120019 | 65 | 187 | 3.0 | 4.0 | 0.00 | 0.00 | 0.00 | 65 | 1011.8 |
| 20260505115930 | 65 | 192 | 3.0 | 4.0 | 0.00 | 0.00 | 0.00 | 65 | 1011.6 |
| 20260505115826 | 65 | 192 | 2.0 | 4.0 | 0.00 | 0.00 | 0.00 | 65 | 1011.5 |
| 20260505115722 | 65 | 224 | 3.0 | 5.0 | 0.00 | 0.00 | 0.00 | 65 | 1011.6 |
| 20260505115657 | 65 | 219 | 3.0 | 4.0 | 0.00 | 0.00 | 0.00 | 67 | 1011.6 |
| 20260505115528 | 65 | 204 | 4.0 | 5.0 | 0.00 | 0.00 | 0.00 | 67 | 1011.6 |
| 20260505115444 | 65 | 193 | 3.0 | 5.0 | 0.00 | 0.00 | 0.00 | 66 | 1011.6 |
| 20260505115340 | 65 | 204 | 3.0 | 5.0 | 0.00 | 0.00 | 0.00 | 67 | 1011.6 |
| 20260505115215 | 65 | 191 | 4.0 | 5.0 | 0.00 | 0.00 | 0.00 | 66 | 1011.6 |
| 20260505115127 | 64 | 225 | 3.0 | 4.0 | 0.00 | 0.00 | 0.00 | 67 | 1011.4 |
| 20260505115022 | 64 | 202 | 5.0 | 7.0 | 0.00 | 0.00 | 0.00 | 67 | 1011.6 |
| 20260505114918 | 64 | 201 | 5.0 | 7.0 | 0.00 | 0.00 | 0.00 | 67 | 1011.4 |
| 20260505114830 | 64 | 192 | 4.0 | 7.0 | 0.00 | 0.00 | 0.00 | 68 | 1011.5 |
| 20260505114725 | 64 | 192 | 2.0 | 4.0 | 0.00 | 0.00 | 0.00 | 68 | 1011.7 |
| 20260505114621 | 64 | 216 | 3.0 | 4.0 | 0.00 | 0.00 | 0.00 | 69 | 1011.7 |
| 20260505114516 | 64 | 197 | 4.0 | 5.0 | 0.00 | 0.00 | 0.00 | 69 | 1011.6 |
| 20260505114428 | 63 | 195 | 3.0 | 6.0 | 0.00 | 0.00 | 0.00 | 70 | 1011.8 |
| 20260505114404 | 63 | 199 | 4.0 | 5.0 | 0.00 | 0.00 | 0.00 | 70 | 1011.6 |
| 20260505114219 | 63 | 167 | 2.0 | 4.0 | 0.00 | 0.00 | 0.00 | 70 | 1011.8 |
| 20260505114131 | 63 | 188 | 5.0 | 7.0 | 0.00 | 0.00 | 0.00 | 70 | 1011.6 |
| 20260505114027 | 63 | 198 | 4.0 | 6.0 | 0.00 | 0.00 | 0.00 | 70 | 1011.6 |
| 20260505113922 | 63 | 189 | 5.0 | 6.0 | 0.00 | 0.00 | 0.00 | 70 | 1011.6 |
| 20260505113818 | 63 | 189 | 4.0 | 6.0 | 0.00 | 0.00 | 0.00 | 71 | 1011.7 |
| 20260505113809 | 62 | 202 | 3.0 | 5.0 | 0.00 | 0.00 | 0.00 | 71 | 1011.7 |
| 20260505113625 | 62 | 188 | 3.0 | 4.0 | 0.00 | 0.00 | 0.00 | 72 | 1011.7 |
| 20260505113540 | 62 | 191 | 2.0 | 4.0 | 0.00 | 0.00 | 0.00 | 72 | 1011.8 |
| 20260505113456 | 62 | 201 | 3.0 | 4.0 | 0.00 | 0.00 | 0.00 | 72 | 1011.9 |
| 20260505113327 | 62 | 194 | 3.0 | 6.0 | 0.00 | 0.00 | 0.00 | 73 | 1011.8 |
| 20260505113223 | 62 | 193 | 3.0 | 4.0 | 0.00 | 0.00 | 0.00 | 73 | 1011.6 |
| 20260505113119 | 62 | 191 | 3.0 | 4.0 | 0.00 | 0.00 | 0.00 | 73 | 1011.7 |
| 20260505113030 | 62 | 193 | 3.0 | 4.0 | 0.00 | 0.00 | 0.00 | 73 | 1011.7 |
| 20260505112926 | 61 | 195 | 3.0 | 5.0 | 0.00 | 0.00 | 0.00 | 73 | 1011.7 |
| 20260505112822 | 61 | 188 | 4.0 | 6.0 | 0.00 | 0.00 | 0.00 | 73 | 1011.7 |
| 20260505112717 | 61 | 199 | 3.0 | 4.0 | 0.00 | 0.00 | 0.00 | 74 | 1011.6 |
| 20260505112629 | 61 | 194 | 2.0 | 3.0 | 0.00 | 0.00 | 0.00 | 73 | 1011.8 |
| 20260505112525 | 61 | 194 | 3.0 | 4.0 | 0.00 | 0.00 | 0.00 | 74 | 1011.8 |
| 20260505112420 | 61 | 183 | 3.0 | 4.0 | 0.00 | 0.00 | 0.00 | 73 | 1011.8 |
| 20260505112316 | 61 | 190 | 4.0 | 6.0 | 0.00 | 0.00 | 0.00 | 73 | 1011.7 |
| 20260505112227 | 61 | 181 | 3.0 | 4.0 | 0.00 | 0.00 | 0.00 | 74 | 1011.7 |
| 20260505112123 | 61 | 188 | 2.0 | 3.0 | 0.00 | 0.00 | 0.00 | 74 | 1011.8 |
| 20260505112038 | 61 | 155 | 1.0 | 3.0 | 0.00 | 0.00 | 0.00 | 74 | 1011.7 |
| 20260505111930 | 61 | 185 | 2.0 | 4.0 | 0.00 | 0.00 | 0.00 | 75 | 1011.8 |
| 20260505111826 | 61 | 196 | 3.0 | 5.0 | 0.00 | 0.00 | 0.00 | 74 | 1011.6 |
| 20260505111721 | 61 | 184 | 3.0 | 3.0 | 0.00 | 0.00 | 0.00 | 75 | 1011.6 |
| 20260505111617 | 60 | 185 | 2.0 | 3.0 | 0.00 | 0.00 | 0.00 | 74 | 1011.8 |
| 20260505111529 | 60 | 192 | 3.0 | 4.0 | 0.00 | 0.00 | 0.00 | 75 | 1011.7 |
| 20260505111424 | 60 | 208 | 3.0 | 5.0 | 0.00 | 0.00 | 0.00 | 74 | 1011.7 |
| 20260505111320 | 60 | 184 | 3.0 | 4.0 | 0.00 | 0.00 | 0.00 | 74 | 1011.7 |
| 20260505111236 | 60 | 184 | 2.0 | 4.0 | 0.00 | 0.00 | 0.00 | 75 | 1011.6 |
| 20260505111127 | 60 | 187 | 2.0 | 3.0 | 0.00 | 0.00 | 0.00 | 75 | 1011.8 |
| 20260505111022 | 60 | 202 | 3.0 | 4.0 | 0.00 | 0.00 | 0.00 | 75 | 1011.8 |
| 20260505110918 | 60 | 189 | 3.0 | 4.0 | 0.00 | 0.00 | 0.00 | 75 | 1011.7 |
| 20260505110850 | 60 | 184 | 3.0 | 3.0 | 0.00 | 0.00 | 0.00 | 76 | 1011.6 |
| 20260505110725 | 60 | 181 | 2.0 | 3.0 | 0.00 | 0.00 | 0.00 | 76 | 1011.6 |
| 20260505110621 | 60 | 188 | 2.0 | 3.0 | 0.00 | 0.00 | 0.00 | 76 | 1011.6 |
| 20260505110517 | 60 | 179 | 2.0 | 3.0 | 0.00 | 0.00 | 0.00 | 76 | 1011.6 |
| 20260505110429 | 60 | 175 | 3.0 | 3.0 | 0.00 | 0.00 | 0.00 | 77 | 1011.7 |
| 20260505110324 | 59 | 165 | 1.0 | 2.0 | 0.00 | 0.00 | 0.00 | 77 | 1011.8 |
| 20260505110240 | 59 | 178 | 2.0 | 3.0 | 0.00 | 0.00 | 0.00 | 77 | 1011.5 |
| 20260505110115 | 59 | 201 | 2.0 | 3.0 | 0.00 | 0.00 | 0.00 | 77 | 1011.7 |
| 20260505102219 | 58 | 185 | 2.0 | 2.0 | 0.00 | 0.00 | 0.00 | 79 | 1011.6 |
| 20260505102115 | 57 | 200 | 3.0 | 4.0 | 0.00 | 0.00 | 0.00 | 79 | 1011.5 |
| 20260505102027 | 57 | 202 | 3.0 | 4.0 | 0.00 | 0.00 | 0.00 | 79 | 1011.8 |
| 20260505101923 | 57 | 205 | 1.0 | 3.0 | 0.00 | 0.00 | 0.00 | 79 | 1011.6 |
| 20260505101837 | 57 | 187 | 2.0 | 3.0 | 0.00 | 0.00 | 0.00 | 79 | 1011.7 |
| 20260505101729 | 57 | 207 | 1.0 | 4.0 | 0.00 | 0.00 | 0.00 | 79 | 1011.5 |
| 20260505101625 | 57 | 202 | 2.0 | 4.0 | 0.00 | 0.00 | 0.00 | 80 | 1011.6 |
| 20260505101520 | 57 | 201 | 3.0 | 3.0 | 0.00 | 0.00 | 0.00 | 80 | 1011.6 |
| 20260505101416 | 57 | 200 | 3.0 | 5.0 | 0.00 | 0.00 | 0.00 | 80 | 1011.6 |
| 20260505101327 | 57 | 209 | 2.0 | 4.0 | 0.00 | 0.00 | 0.00 | 80 | 1011.8 |
| 20260505101223 | 57 | 209 | 2.0 | 3.0 | 0.00 | 0.00 | 0.00 | 80 | 1011.5 |
| 20260505101118 | 57 | 203 | 2.0 | 3.0 | 0.00 | 0.00 | 0.00 | 80 | 1011.5 |
| 20260505101030 | 56 | 188 | 2.0 | 3.0 | 0.00 | 0.00 | 0.00 | 81 | 1011.4 |
| 20260505100925 | 56 | 169 | 1.0 | 2.0 | 0.00 | 0.00 | 0.00 | 81 | 1011.4 |
| 20260505100821 | 56 | 97 | 1.0 | 2.0 | 0.00 | 0.00 | 0.00 | 81 | 1011.5 |
| 20260505100757 | 56 | 84 | 2.0 | 2.0 | 0.00 | 0.00 | 0.00 | 81 | 1011.5 |
| 20260505100628 | 56 | 178 | 1.0 | 2.0 | 0.00 | 0.00 | 0.00 | 81 | 1011.4 |
| 20260505100524 | 56 | 222 | 1.0 | 2.0 | 0.00 | 0.00 | 0.00 | 81 | 1011.3 |
| 20260505100439 | 56 | 228 | 1.0 | 3.0 | 0.00 | 0.00 | 0.00 | 81 | 1011.5 |
| 20260505100315 | 56 | 186 | 2.0 | 3.0 | 0.00 | 0.00 | 0.00 | 81 | 1011.4 |
| 20260505100227 | 56 | 213 | 2.0 | 3.0 | 0.00 | 0.00 | 0.00 | 81 | 1011.5 |
| 20260505100122 | 56 | 193 | 2.0 | 4.0 | 0.00 | 0.00 | 0.00 | 81 | 1011.4 |
| 20260505100038 | 56 | 185 | 3.0 | 4.0 | 0.00 | 0.00 | 0.00 | 81 | 1011.2 |
| 20260505095950 | 56 | 204 | 2.0 | 5.0 | 0.00 | 0.00 | 0.00 | 81 | 1011.7 |
| 20260505095825 | 56 | 214 | 3.0 | 5.0 | 0.00 | 0.00 | 0.00 | 82 | 1011.5 |
| 20260505095741 | 56 | 181 | 1.0 | 3.0 | 0.00 | 0.00 | 0.00 | 82 | 1011.3 |
| 20260505095616 | 56 | 198 | 3.0 | 6.0 | 0.00 | 0.00 | 0.00 | 82 | 1011.4 |
| 20260505095528 | 56 | 187 | 3.0 | 4.0 | 0.00 | 0.00 | 0.00 | 82 | 1011.3 |
| 20260505095423 | 56 | 189 | 3.0 | 4.0 | 0.00 | 0.00 | 0.00 | 82 | 1011.5 |
| 20260505095319 | 56 | 190 | 2.0 | 3.0 | 0.00 | 0.00 | 0.00 | 82 | 1011.2 |
| 20260505095231 | 56 | 197 | 1.0 | 2.0 | 0.00 | 0.00 | 0.00 | 82 | 1011.2 |
| 20260505095126 | 56 | 183 | 1.0 | 3.0 | 0.00 | 0.00 | 0.00 | 82 | 1011.5 |
| 20260505095022 | 56 | 210 | 2.0 | 4.0 | 0.00 | 0.00 | 0.00 | 82 | 1011.2 |
| 20260505094938 | 55 | 184 | 2.0 | 3.0 | 0.00 | 0.00 | 0.00 | 82 | 1011.2 |
| 20260505094909 | 55 | 183 | 2.0 | 3.0 | 0.00 | 0.00 | 0.00 | 82 | 1011.1 |
| 20260505094725 | 55 | 169 | 1.0 | 3.0 | 0.00 | 0.00 | 0.00 | 82 | 1011.2 |
| 20260505094640 | 55 | 144 | 1.0 | 2.0 | 0.00 | 0.00 | 0.00 | 82 | 1011.1 |
| 20260505094516 | 55 | 172 | 1.0 | 2.0 | 0.00 | 0.00 | 0.00 | 82 | 1011.2 |
| 20260505094428 | 56 | 165 | 0.0 | 2.0 | 0.00 | 0.00 | 0.00 | 82 | 1011.0 |
| 20260505094343 | 56 | 155 | 0.0 | 1.0 | 0.00 | 0.00 | 0.00 | 82 | 1010.9 |
| 20260505094239 | 56 | 154 | 0.0 | 2.0 | 0.00 | 0.00 | 0.00 | 82 | 1011.1 |
| 20260505094130 | 56 | 186 | 1.0 | 3.0 | 0.00 | 0.00 | 0.00 | 82 | 1011.0 |
| 20260505094026 | 56 | 202 | 2.0 | 2.0 | 0.00 | 0.00 | 0.00 | 82 | 1010.9 |
| 20260505093942 | 56 | 176 | 2.0 | 3.0 | 0.00 | 0.00 | 0.00 | 82 | 1010.8 |
| 20260505093817 | 56 | 187 | 2.0 | 3.0 | 0.00 | 0.00 | 0.00 | 82 | 1010.9 |
| 20260505093729 | 56 | 208 | 1.0 | 2.0 | 0.00 | 0.00 | 0.00 | 82 | 1010.9 |
| 20260505093645 | 56 | 201 | 2.0 | 3.0 | 0.00 | 0.00 | 0.00 | 82 | 1010.7 |
| 20260505093541 | 56 | 188 | 1.0 | 2.0 | 0.00 | 0.00 | 0.00 | 82 | 1010.5 |
| 20260505093416 | 56 | 190 | 1.0 | 2.0 | 0.00 | 0.00 | 0.00 | 82 | 1010.6 |
| 20260505093347 | 56 | 181 | 1.0 | 2.0 | 0.00 | 0.00 | 0.00 | 82 | 1010.7 |
| 20260505093222 | 56 | 191 | 1.0 | 2.0 | 0.00 | 0.00 | 0.00 | 82 | 1010.7 |
| 20260505093138 | 56 | 190 | 1.0 | 2.0 | 0.00 | 0.00 | 0.00 | 82 | 1010.8 |
| 20260505093050 | 56 | 194 | 1.0 | 2.0 | 0.00 | 0.00 | 0.00 | 82 | 1010.8 |
| 20260505092926 | 56 | 0.0 | 1.0 | 0.00 | 0.00 | 0.00 | 82 | 1010.6 | |
| 20260505092821 | 56 | 0.0 | 1.0 | 0.00 | 0.00 | 0.00 | 82 | 1010.4 | |
| 20260505092717 | 56 | 162 | 0.0 | 2.0 | 0.00 | 0.00 | 0.00 | 82 | 1010.5 |
| 20260505092628 | 56 | 262 | 0.0 | 2.0 | 0.00 | 0.00 | 0.00 | 82 | 1010.6 |
| 20260505092524 | 56 | 193 | 2.0 | 3.0 | 0.00 | 0.00 | 0.00 | 82 | 1010.5 |
| 20260505092440 | 55 | 196 | 2.0 | 3.0 | 0.00 | 0.00 | 0.00 | 82 | 1010.6 |
| 20260505092315 | 55 | 192 | 2.0 | 2.0 | 0.00 | 0.00 | 0.00 | 82 | 1010.6 |
| 20260505092227 | 55 | 95 | 0.0 | 2.0 | 0.00 | 0.00 | 0.00 | 83 | 1010.7 |
| 20260505092122 | 55 | 170 | 1.0 | 2.0 | 0.00 | 0.00 | 0.00 | 83 | 1010.4 |
| 20260505092018 | 55 | 172 | 1.0 | 2.0 | 0.00 | 0.00 | 0.00 | 83 | 1010.6 |
| 20260505092010 | 55 | 166 | 0.0 | 2.0 | 0.00 | 0.00 | 0.00 | 83 | 1010.5 |
| 20260505091825 | 55 | 0.0 | 2.0 | 0.00 | 0.00 | 0.00 | 83 | 1010.5 | |
| 20260505091721 | 55 | 0.0 | 1.0 | 0.00 | 0.00 | 0.00 | 83 | 1010.5 | |
| 20260505091616 | 55 | 192 | 0.0 | 2.0 | 0.00 | 0.00 | 0.00 | 83 | 1010.5 |
| 20260505091528 | 55 | 305 | 0.0 | 1.0 | 0.00 | 0.00 | 0.00 | 83 | 1010.6 |
| 20260505091424 | 55 | 0.0 | 1.0 | 0.00 | 0.00 | 0.00 | 83 | 1010.5 | |
| 20260505091319 | 55 | 174 | 1.0 | 2.0 | 0.00 | 0.00 | 0.00 | 83 | 1010.4 |
| 20260505091231 | 55 | 179 | 1.0 | 3.0 | 0.00 | 0.00 | 0.00 | 83 | 1010.5 |
| 20260505091146 | 55 | 198 | 0.0 | 2.0 | 0.00 | 0.00 | 0.00 | 83 | 1010.5 |
| 20260505091021 | 55 | 171 | 1.0 | 3.0 | 0.00 | 0.00 | 0.00 | 83 | 1010.6 |
| 20260505090917 | 55 | 183 | 2.0 | 2.0 | 0.00 | 0.00 | 0.00 | 84 | 1010.6 |
| 20260505090849 | 55 | 140 | 1.0 | 2.0 | 0.00 | 0.00 | 0.00 | 84 | 1010.7 |
| 20260505090745 | 55 | 208 | 1.0 | 2.0 | 0.00 | 0.00 | 0.00 | 84 | 1010.7 |
| 20260505090640 | 55 | 266 | 1.0 | 2.0 | 0.00 | 0.00 | 0.00 | 85 | 1010.7 |
| 20260505090515 | 54 | 186 | 1.0 | 2.0 | 0.00 | 0.00 | 0.00 | 85 | 1010.6 |
| 20260505090427 | 54 | 177 | 0.0 | 2.0 | 0.00 | 0.00 | 0.00 | 85 | 1010.8 |
| 20260505090323 | 54 | 209 | 1.0 | 2.0 | 0.00 | 0.00 | 0.00 | 86 | 1010.8 |
| 20260505090218 | 54 | 128 | 1.0 | 2.0 | 0.00 | 0.00 | 0.00 | 86 | 1010.8 |
| 20260505090130 | 54 | 128 | 1.0 | 2.0 | 0.00 | 0.00 | 0.00 | 86 | 1010.7 |
| 20260505090025 | 54 | 134 | 1.0 | 2.0 | 0.00 | 0.00 | 0.00 | 86 | 1010.7 |
| 20260505085921 | 54 | 133 | 0.0 | 2.0 | 0.00 | 0.00 | 0.00 | 86 | 1010.6 |
| 20260505085817 | 54 | 178 | 0.0 | 1.0 | 0.00 | 0.00 | 0.00 | 86 | 1010.8 |
| 20260505085728 | 54 | 0.0 | 1.0 | 0.00 | 0.00 | 0.00 | 86 | 1010.7 | |
| 20260505085624 | 54 | 154 | 1.0 | 3.0 | 0.00 | 0.00 | 0.00 | 86 | 1010.6 |
| 20260505085519 | 54 | 129 | 1.0 | 3.0 | 0.00 | 0.00 | 0.00 | 86 | 1010.7 |
| 20260505085430 | 54 | 136 | 1.0 | 2.0 | 0.00 | 0.00 | 0.00 | 86 | 1010.7 |
| 20260505085326 | 54 | 166 | 1.0 | 2.0 | 0.00 | 0.00 | 0.00 | 87 | 1010.8 |
| 20260505085222 | 53 | 206 | 2.0 | 3.0 | 0.00 | 0.00 | 0.00 | 88 | 1010.6 |
| 20260505085137 | 53 | 150 | 1.0 | 2.0 | 0.00 | 0.00 | 0.00 | 88 | 1010.8 |
| 20260505085028 | 53 | 111 | 1.0 | 2.0 | 0.00 | 0.00 | 0.00 | 88 | 1010.5 |
| 20260505084924 | 53 | 189 | 1.0 | 3.0 | 0.00 | 0.00 | 0.00 | 89 | 1010.6 |
| 20260505084819 | 52 | 199 | 2.0 | 2.0 | 0.00 | 0.00 | 0.00 | 89 | 1010.7 |
| 20260505084731 | 52 | 200 | 1.0 | 2.0 | 0.00 | 0.00 | 0.00 | 90 | 1010.7 |
| 20260505084627 | 52 | 33 | 1.0 | 1.0 | 0.00 | 0.00 | 0.00 | 90 | 1010.8 |
| 20260505084522 | 52 | 131 | 1.0 | 2.0 | 0.00 | 0.00 | 0.00 | 89 | 1010.6 |
| 20260505084438 | 52 | 105 | 0.0 | 1.0 | 0.00 | 0.00 | 0.00 | 89 | 1010.7 |
| 20260505084329 | 52 | 0.0 | 2.0 | 0.00 | 0.00 | 0.00 | 89 | 1010.8 | |
| 20260505084225 | 52 | 123 | 0.0 | 2.0 | 0.00 | 0.00 | 0.00 | 89 | 1010.6 |
| 20260505084121 | 52 | 109 | 1.0 | 2.0 | 0.00 | 0.00 | 0.00 | 89 | 1010.8 |
| 20260505084016 | 52 | 140 | 1.0 | 2.0 | 0.00 | 0.00 | 0.00 | 89 | 1010.7 |
| 20260505083928 | 52 | 158 | 1.0 | 2.0 | 0.00 | 0.00 | 0.00 | 89 | 1010.7 |
| 20260505083823 | 52 | 121 | 1.0 | 2.0 | 0.00 | 0.00 | 0.00 | 89 | 1010.5 |
| 20260505083719 | 52 | 40 | 0.0 | 1.0 | 0.00 | 0.00 | 0.00 | 89 | 1010.9 |
| 20260505083631 | 52 | 112 | 1.0 | 1.0 | 0.00 | 0.00 | 0.00 | 89 | 1010.6 |
| 20260505083526 | 52 | 0.0 | 2.0 | 0.00 | 0.00 | 0.00 | 89 | 1010.8 | |
| 20260505083422 | 52 | 69 | 1.0 | 2.0 | 0.00 | 0.00 | 0.00 | 89 | 1010.8 |
| 20260505083337 | 52 | 81 | 1.0 | 2.0 | 0.00 | 0.00 | 0.00 | 89 | 1010.6 |
| 20260505083229 | 52 | 0.0 | 2.0 | 0.00 | 0.00 | 0.00 | 89 | 1010.7 | |
| 20260505083125 | 52 | 60 | 1.0 | 2.0 | 0.00 | 0.00 | 0.00 | 89 | 1010.5 |
| 20260505083020 | 52 | 0.0 | 1.0 | 0.00 | 0.00 | 0.00 | 89 | 1010.7 | |
| 20260505082936 | 52 | 0.0 | 2.0 | 0.00 | 0.00 | 0.00 | 89 | 1010.7 | |
| 20260505082827 | 52 | 0.0 | 2.0 | 0.00 | 0.00 | 0.00 | 89 | 1010.8 | |
| 20260505082723 | 52 | 77 | 0.0 | 2.0 | 0.00 | 0.00 | 0.00 | 89 | 1010.7 |
| 20260505082639 | 52 | 87 | 1.0 | 2.0 | 0.00 | 0.00 | 0.00 | 89 | 1010.8 |
| 20260505082530 | 52 | 65 | 1.0 | 2.0 | 0.00 | 0.00 | 0.00 | 89 | 1010.7 |
| 20260505082426 | 52 | 112 | 1.0 | 2.0 | 0.00 | 0.00 | 0.00 | 89 | 1010.8 |
| 20260505082321 | 52 | 124 | 1.0 | 3.0 | 0.00 | 0.00 | 0.00 | 89 | 1010.7 |
| 20260505082217 | 52 | 134 | 1.0 | 2.0 | 0.00 | 0.00 | 0.00 | 89 | 1010.8 |
| 20260505082129 | 52 | 132 | 1.0 | 4.0 | 0.00 | 0.00 | 0.00 | 89 | 1010.7 |
| 20260505082024 | 52 | 127 | 2.0 | 3.0 | 0.00 | 0.00 | 0.00 | 89 | 1010.6 |
| 20260505082000 | 52 | 145 | 0.0 | 2.0 | 0.00 | 0.00 | 0.00 | 89 | 1010.6 |
| 20260505081815 | 52 | 138 | 0.0 | 2.0 | 0.00 | 0.00 | 0.00 | 88 | 1010.7 |
| 20260505081727 | 52 | 85 | 0.0 | 2.0 | 0.00 | 0.00 | 0.00 | 88 | 1010.7 |
| 20260505081623 | 52 | 98 | 1.0 | 1.0 | 0.00 | 0.00 | 0.00 | 88 | 1010.5 |
| 20260505081519 | 52 | 82 | 0.0 | 2.0 | 0.00 | 0.00 | 0.00 | 88 | 1010.6 |
| 20260505081430 | 52 | 162 | 0.0 | 2.0 | 0.00 | 0.00 | 0.00 | 88 | 1010.5 |
| 20260505081325 | 52 | 0.0 | 2.0 | 0.00 | 0.00 | 0.00 | 88 | 1010.8 | |
| 20260505081221 | 52 | 143 | 1.0 | 2.0 | 0.00 | 0.00 | 0.00 | 88 | 1010.5 |
| 20260505081117 | 52 | 123 | 2.0 | 3.0 | 0.00 | 0.00 | 0.00 | 88 | 1010.4 |
| 20260505081048 | 52 | 109 | 1.0 | 3.0 | 0.00 | 0.00 | 0.00 | 88 | 1010.7 |
| 20260505080924 | 52 | 122 | 1.0 | 2.0 | 0.00 | 0.00 | 0.00 | 88 | 1010.6 |
| 20260505080820 | 52 | 0.0 | 1.0 | 0.00 | 0.00 | 0.00 | 87 | 1010.6 | |
| 20260505080715 | 52 | 155 | 0.0 | 1.0 | 0.00 | 0.00 | 0.00 | 87 | 1010.8 |
| 20260505080647 | 52 | 186 | 1.0 | 2.0 | 0.00 | 0.00 | 0.00 | 87 | 1010.7 |
| 20260505080523 | 52 | 174 | 1.0 | 2.0 | 0.00 | 0.00 | 0.00 | 87 | 1010.4 |
| 20260505080418 | 52 | 151 | 2.0 | 3.0 | 0.00 | 0.00 | 0.00 | 87 | 1010.6 |
| 20260505080330 | 52 | 135 | 1.0 | 2.0 | 0.00 | 0.00 | 0.00 | 87 | 1010.5 |
| 20260505080225 | 52 | 126 | 2.0 | 2.0 | 0.00 | 0.00 | 0.00 | 87 | 1010.7 |
| 20260505080121 | 52 | 130 | 2.0 | 2.0 | 0.00 | 0.00 | 0.00 | 87 | 1010.7 |
| 20260505080016 | 52 | 133 | 1.0 | 2.0 | 0.00 | 0.00 | 0.00 | 87 | 1010.7 |
| 20260505075928 | 52 | 101 | 1.0 | 2.0 | 0.00 | 0.00 | 0.00 | 87 | 1010.7 |
| 20260505075824 | 52 | 82 | 1.0 | 2.0 | 0.00 | 0.00 | 0.00 | 86 | 1010.7 |
| 20260505075719 | 52 | 0.0 | 0.0 | 0.00 | 0.00 | 0.00 | 86 | 1010.7 | |
| 20260505075615 | 52 | 174 | 0.0 | 2.0 | 0.00 | 0.00 | 0.00 | 86 | 1010.6 |
| 20260505075526 | 52 | 0.0 | 1.0 | 0.00 | 0.00 | 0.00 | 86 | 1010.6 | |
| 20260505075442 | 53 | 330 | 0.0 | 2.0 | 0.00 | 0.00 | 0.00 | 86 | 1010.7 |
| 20260505075338 | 53 | 133 | 1.0 | 2.0 | 0.00 | 0.00 | 0.00 | 86 | 1010.8 |
| 20260505075249 | 53 | 126 | 1.0 | 1.0 | 0.00 | 0.00 | 0.00 | 86 | 1010.6 |
| 20260505075145 | 53 | 118 | 1.0 | 2.0 | 0.00 | 0.00 | 0.00 | 86 | 1010.7 |
| 20260505075021 | 53 | 118 | 1.0 | 2.0 | 0.00 | 0.00 | 0.00 | 86 | 1010.7 |
| 20260505074916 | 53 | 128 | 1.0 | 2.0 | 0.00 | 0.00 | 0.00 | 86 | 1010.7 |
| 20260505074828 | 53 | 122 | 1.0 | 2.0 | 0.00 | 0.00 | 0.00 | 86 | 1010.6 |
| 20260505074723 | 53 | 119 | 2.0 | 2.0 | 0.00 | 0.00 | 0.00 | 86 | 1010.7 |
| 20260505074619 | 53 | 124 | 1.0 | 2.0 | 0.00 | 0.00 | 0.00 | 86 | 1010.8 |
| 20260505074530 | 53 | 136 | 1.0 | 2.0 | 0.00 | 0.00 | 0.00 | 86 | 1010.8 |
| 20260505074426 | 53 | 147 | 1.0 | 2.0 | 0.00 | 0.00 | 0.00 | 86 | 1010.8 |
| 20260505074322 | 53 | 142 | 2.0 | 2.0 | 0.00 | 0.00 | 0.00 | 86 | 1010.7 |
| 20260505074217 | 53 | 145 | 2.0 | 2.0 | 0.00 | 0.00 | 0.00 | 86 | 1010.6 |
| 20260505074129 | 53 | 134 | 1.0 | 2.0 | 0.00 | 0.00 | 0.00 | 86 | 1010.5 |
| 20260505074025 | 53 | 143 | 2.0 | 2.0 | 0.00 | 0.00 | 0.00 | 86 | 1010.7 |
| 20260505073920 | 53 | 116 | 1.0 | 2.0 | 0.00 | 0.00 | 0.00 | 86 | 1010.7 |
| 20260505073816 | 53 | 120 | 1.0 | 2.0 | 0.00 | 0.00 | 0.00 | 86 | 1010.7 |
| 20260505073748 | 53 | 0.0 | 2.0 | 0.00 | 0.00 | 0.00 | 86 | 1010.8 | |
| 20260505073623 | 53 | 106 | 1.0 | 2.0 | 0.00 | 0.00 | 0.00 | 86 | 1010.7 |
| 20260505073519 | 53 | 121 | 1.0 | 2.0 | 0.00 | 0.00 | 0.00 | 86 | 1010.6 |
| 20260505073430 | 53 | 108 | 1.0 | 2.0 | 0.00 | 0.00 | 0.00 | 85 | 1010.7 |
| 20260505073326 | 53 | 120 | 1.0 | 2.0 | 0.00 | 0.00 | 0.00 | 85 | 1010.6 |
| 20260505073221 | 53 | 0.0 | 2.0 | 0.00 | 0.00 | 0.00 | 85 | 1010.8 | |
| 20260505073117 | 53 | 0.0 | 1.0 | 0.00 | 0.00 | 0.00 | 85 | 1010.8 | |
| 20260505073028 | 53 | 194 | 1.0 | 2.0 | 0.00 | 0.00 | 0.00 | 85 | 1010.7 |
| 20260505072924 | 53 | 178 | 1.0 | 1.0 | 0.00 | 0.00 | 0.00 | 85 | 1010.7 |
| 20260505072819 | 53 | 0.0 | 1.0 | 0.00 | 0.00 | 0.00 | 86 | 1010.7 | |
| 20260505072715 | 53 | 122 | 1.0 | 2.0 | 0.00 | 0.00 | 0.00 | 86 | 1010.7 |
| 20260505072627 | 53 | 122 | 1.0 | 2.0 | 0.00 | 0.00 | 0.00 | 86 | 1010.5 |
| 20260505072523 | 53 | 128 | 2.0 | 2.0 | 0.00 | 0.00 | 0.00 | 85 | 1010.7 |
| 20260505072418 | 53 | 154 | 1.0 | 2.0 | 0.00 | 0.00 | 0.00 | 85 | 1010.5 |
| 20260505072330 | 53 | 158 | 2.0 | 2.0 | 0.00 | 0.00 | 0.00 | 85 | 1010.6 |
| 20260505072225 | 53 | 152 | 2.0 | 2.0 | 0.00 | 0.00 | 0.00 | 85 | 1010.6 |
| 20260505072121 | 53 | 134 | 1.0 | 2.0 | 0.00 | 0.00 | 0.00 | 85 | 1010.5 |
| 20260505072016 | 53 | 119 | 1.0 | 2.0 | 0.00 | 0.00 | 0.00 | 85 | 1010.7 |
| 20260505071948 | 53 | 137 | 1.0 | 2.0 | 0.00 | 0.00 | 0.00 | 85 | 1010.7 |
| 20260505071824 | 53 | 122 | 1.0 | 2.0 | 0.00 | 0.00 | 0.00 | 85 | 1010.7 |
| 20260505071719 | 53 | 133 | 0.0 | 1.0 | 0.00 | 0.00 | 0.00 | 85 | 1010.6 |
| 20260505071615 | 53 | 0.0 | 1.0 | 0.00 | 0.00 | 0.00 | 85 | 1010.8 | |
| 20260505071527 | 53 | 0.0 | 0.0 | 0.00 | 0.00 | 0.00 | 85 | 1010.7 | |
| 20260505071422 | 53 | 0.0 | 1.0 | 0.00 | 0.00 | 0.00 | 85 | 1010.6 | |
| 20260505071318 | 53 | 125 | 0.0 | 2.0 | 0.00 | 0.00 | 0.00 | 85 | 1010.8 |
| 20260505071229 | 53 | 113 | 0.0 | 2.0 | 0.00 | 0.00 | 0.00 | 85 | 1010.6 |
| 20260505071125 | 53 | 358 | 1.0 | 2.0 | 0.00 | 0.00 | 0.00 | 85 | 1010.7 |
| 20260505071021 | 53 | 24 | 1.0 | 2.0 | 0.00 | 0.00 | 0.00 | 85 | 1010.7 |
| 20260505070936 | 53 | 56 | 1.0 | 2.0 | 0.00 | 0.00 | 0.00 | 85 | 1010.7 |
| 20260505070828 | 53 | 87 | 1.0 | 2.0 | 0.00 | 0.00 | 0.00 | 85 | 1010.8 |
| 20260505070723 | 53 | 111 | 1.0 | 3.0 | 0.00 | 0.00 | 0.00 | 85 | 1010.5 |
| 20260505070619 | 53 | 92 | 1.0 | 2.0 | 0.00 | 0.00 | 0.00 | 85 | 1010.8 |
| 20260505070531 | 53 | 0.0 | 1.0 | 0.00 | 0.00 | 0.00 | 84 | 1010.8 | |
| 20260505070426 | 53 | 0.0 | 1.0 | 0.00 | 0.00 | 0.00 | 84 | 1010.5 | |
| 20260505070322 | 53 | 0.0 | 0.0 | 0.00 | 0.00 | 0.00 | 84 | 1010.6 | |
| 20260505070218 | 53 | 0.0 | 1.0 | 0.00 | 0.00 | 0.00 | 84 | 1010.7 | |
| 20260505070129 | 53 | 168 | 1.0 | 1.0 | 0.00 | 0.00 | 0.00 | 84 | 1010.8 |
| 20260505070025 | 53 | 0.0 | 1.0 | 0.00 | 0.00 | 0.00 | 84 | 1010.8 | |
| 20260505065921 | 53 | 125 | 1.0 | 2.0 | 0.00 | 0.00 | 0.00 | 84 | 1010.6 |
| 20260505065816 | 53 | 109 | 1.0 | 2.0 | 0.00 | 0.00 | 0.00 | 84 | 1010.6 |
| 20260505065728 | 53 | 0.0 | 1.0 | 0.00 | 0.00 | 0.00 | 84 | 1010.6 | |
| 20260505065624 | 53 | 106 | 0.0 | 2.0 | 0.00 | 0.00 | 0.00 | 84 | 1010.7 |
| 20260505065519 | 53 | 105 | 1.0 | 2.0 | 0.00 | 0.00 | 0.00 | 84 | 1010.6 |
| 20260505065431 | 53 | 100 | 1.0 | 2.0 | 0.00 | 0.00 | 0.00 | 84 | 1010.8 |
| 20260505065326 | 53 | 111 | 1.0 | 2.0 | 0.00 | 0.00 | 0.00 | 84 | 1010.5 |
| 20260505065222 | 53 | 124 | 1.0 | 2.0 | 0.00 | 0.00 | 0.00 | 84 | 1010.7 |
| 20260505065117 | 53 | 129 | 1.0 | 2.0 | 0.00 | 0.00 | 0.00 | 84 | 1010.9 |
| 20260505065029 | 53 | 106 | 1.0 | 2.0 | 0.00 | 0.00 | 0.00 | 84 | 1010.7 |
| 20260505064945 | 53 | 111 | 1.0 | 2.0 | 0.00 | 0.00 | 0.00 | 84 | 1010.7 |
| 20260505064820 | 53 | 117 | 1.0 | 2.0 | 0.00 | 0.00 | 0.00 | 84 | 1010.5 |
| 20260505064716 | 53 | 121 | 1.0 | 2.0 | 0.00 | 0.00 | 0.00 | 84 | 1010.7 |
| 20260505064627 | 53 | 114 | 1.0 | 2.0 | 0.00 | 0.00 | 0.00 | 84 | 1010.6 |
| 20260505064523 | 53 | 145 | 1.0 | 2.0 | 0.00 | 0.00 | 0.00 | 83 | 1010.5 |
| 20260505064419 | 53 | 136 | 1.0 | 2.0 | 0.00 | 0.00 | 0.00 | 83 | 1010.5 |
| 20260505064330 | 53 | 130 | 1.0 | 2.0 | 0.00 | 0.00 | 0.00 | 83 | 1010.5 |
| 20260505064226 | 53 | 127 | 1.0 | 2.0 | 0.00 | 0.00 | 0.00 | 83 | 1010.6 |
| 20260505064202 | 53 | 130 | 1.0 | 2.0 | 0.00 | 0.00 | 0.00 | 83 | 1010.6 |
| 20260505064017 | 53 | 125 | 1.0 | 2.0 | 0.00 | 0.00 | 0.00 | 83 | 1010.7 |
| 20260505063929 | 53 | 132 | 1.0 | 2.0 | 0.00 | 0.00 | 0.00 | 83 | 1010.6 |
| 20260505063904 | 53 | 124 | 1.0 | 2.0 | 0.00 | 0.00 | 0.00 | 83 | 1010.7 |
| 20260505063719 | 53 | 138 | 1.0 | 2.0 | 0.00 | 0.00 | 0.00 | 83 | 1010.5 |
| 20260505063615 | 53 | 117 | 1.0 | 2.0 | 0.00 | 0.00 | 0.00 | 83 | 1010.5 |
| 20260505063527 | 53 | 106 | 1.0 | 2.0 | 0.00 | 0.00 | 0.00 | 83 | 1010.6 |
| 20260505063422 | 53 | 119 | 1.0 | 2.0 | 0.00 | 0.00 | 0.00 | 83 | 1010.7 |
| 20260505063318 | 53 | 117 | 1.0 | 2.0 | 0.00 | 0.00 | 0.00 | 83 | 1010.7 |
| 20260505063229 | 53 | 98 | 0.0 | 1.0 | 0.00 | 0.00 | 0.00 | 83 | 1010.7 |
| 20260505063145 | 53 | 98 | 0.0 | 1.0 | 0.00 | 0.00 | 0.00 | 83 | 1010.6 |
| 20260505063021 | 53 | 118 | 0.0 | 1.0 | 0.00 | 0.00 | 0.00 | 83 | 1010.6 |
| 20260505062916 | 53 | 133 | 1.0 | 1.0 | 0.00 | 0.00 | 0.00 | 83 | 1010.5 |
| 20260505062848 | 53 | 130 | 1.0 | 2.0 | 0.00 | 0.00 | 0.00 | 83 | 1010.6 |
| 20260505062744 | 53 | 121 | 2.0 | 2.0 | 0.00 | 0.00 | 0.00 | 83 | 1010.6 |
| 20260505062619 | 53 | 119 | 1.0 | 2.0 | 0.00 | 0.00 | 0.00 | 83 | 1010.5 |
| 20260505062531 | 53 | 124 | 1.0 | 2.0 | 0.00 | 0.00 | 0.00 | 83 | 1010.6 |
| 20260505062426 | 53 | 119 | 1.0 | 2.0 | 0.00 | 0.00 | 0.00 | 83 | 1010.7 |
| 20260505062402 | 53 | 122 | 1.0 | 2.0 | 0.00 | 0.00 | 0.00 | 83 | 1010.7 |
| 20260505062217 | 53 | 108 | 1.0 | 2.0 | 0.00 | 0.00 | 0.00 | 83 | 1010.8 |
| 20260505062129 | 53 | 127 | 1.0 | 2.0 | 0.00 | 0.00 | 0.00 | 82 | 1010.9 |
| 20260505062025 | 53 | 118 | 1.0 | 1.0 | 0.00 | 0.00 | 0.00 | 82 | 1010.6 |
| 20260505061920 | 53 | 133 | 0.0 | 1.0 | 0.00 | 0.00 | 0.00 | 82 | 1010.6 |
| 20260505061816 | 53 | 114 | 1.0 | 2.0 | 0.00 | 0.00 | 0.00 | 82 | 1010.7 |
| 20260505061728 | 53 | 145 | 1.0 | 2.0 | 0.00 | 0.00 | 0.00 | 82 | 1010.7 |
| 20260505061623 | 53 | 109 | 1.0 | 2.0 | 0.00 | 0.00 | 0.00 | 82 | 1010.7 |
| 20260505061519 | 53 | 156 | 1.0 | 2.0 | 0.00 | 0.00 | 0.00 | 82 | 1010.7 |
| 20260505061430 | 53 | 141 | 1.0 | 1.0 | 0.00 | 0.00 | 0.00 | 82 | 1010.7 |
| 20260505061326 | 53 | 162 | 0.0 | 2.0 | 0.00 | 0.00 | 0.00 | 82 | 1010.6 |
| 20260505061221 | 53 | 134 | 1.0 | 2.0 | 0.00 | 0.00 | 0.00 | 82 | 1010.9 |
| 20260505061117 | 53 | 144 | 0.0 | 2.0 | 0.00 | 0.00 | 0.00 | 82 | 1010.9 |
| 20260505061028 | 53 | 127 | 1.0 | 2.0 | 0.00 | 0.00 | 0.00 | 82 | 1010.7 |
| 20260505060944 | 53 | 0.0 | 2.0 | 0.00 | 0.00 | 0.00 | 81 | 1010.7 | |
| 20260505060820 | 53 | 115 | 1.0 | 2.0 | 0.00 | 0.00 | 0.00 | 81 | 1010.7 |
| 20260505060715 | 53 | 118 | 1.0 | 2.0 | 0.00 | 0.00 | 0.00 | 81 | 1010.8 |
| 20260505060627 | 53 | 130 | 1.0 | 2.0 | 0.00 | 0.00 | 0.00 | 81 | 1010.8 |
| 20260505060522 | 53 | 111 | 1.0 | 2.0 | 0.00 | 0.00 | 0.00 | 81 | 1010.8 |
| 20260505060418 | 53 | 121 | 1.0 | 2.0 | 0.00 | 0.00 | 0.00 | 81 | 1010.7 |
| 20260505060329 | 53 | 137 | 2.0 | 2.0 | 0.00 | 0.00 | 0.00 | 80 | 1010.9 |
| 20260505060225 | 53 | 139 | 2.0 | 2.0 | 0.00 | 0.00 | 0.00 | 80 | 1010.9 |
| 20260505060121 | 53 | 125 | 1.0 | 2.0 | 0.00 | 0.00 | 0.00 | 80 | 1010.8 |
| 20260505060016 | 53 | 141 | 1.0 | 2.0 | 0.00 | 0.00 | 0.00 | 80 | 1010.7 |
| 20260505055928 | 54 | 130 | 0.0 | 2.0 | 0.00 | 0.00 | 0.00 | 80 | 1011.0 |
| 20260505055824 | 54 | 127 | 1.0 | 2.0 | 0.00 | 0.00 | 0.00 | 80 | 1010.7 |
| 20260505055719 | 54 | 132 | 1.0 | 2.0 | 0.00 | 0.00 | 0.00 | 80 | 1010.8 |
| 20260505055631 | 54 | 134 | 1.0 | 2.0 | 0.00 | 0.00 | 0.00 | 80 | 1010.7 |
| 20260505055526 | 54 | 128 | 0.0 | 2.0 | 0.00 | 0.00 | 0.00 | 80 | 1010.7 |
| 20260505055422 | 54 | 129 | 1.0 | 2.0 | 0.00 | 0.00 | 0.00 | 79 | 1010.6 |
| 20260505055317 | 54 | 0.0 | 2.0 | 0.00 | 0.00 | 0.00 | 79 | 1010.9 | |
| 20260505055229 | 54 | 132 | 1.0 | 2.0 | 0.00 | 0.00 | 0.00 | 79 | 1011.1 |
| 20260505055124 | 54 | 142 | 1.0 | 2.0 | 0.00 | 0.00 | 0.00 | 79 | 1010.7 |
| 20260505055100 | 54 | 141 | 1.0 | 2.0 | 0.00 | 0.00 | 0.00 | 79 | 1010.9 |
| 20260505054916 | 54 | 178 | 0.0 | 2.0 | 0.00 | 0.00 | 0.00 | 79 | 1010.8 |
| 20260505054907 | 54 | 0.0 | 1.0 | 0.00 | 0.00 | 0.00 | 79 | 1010.8 | |
| 20260505054743 | 54 | 191 | 2.0 | 2.0 | 0.00 | 0.00 | 0.00 | 79 | 1010.8 |
| 20260505054639 | 54 | 4 | 1.0 | 2.0 | 0.00 | 0.00 | 0.00 | 79 | 1010.9 |
| 20260505054530 | 54 | 357 | 1.0 | 2.0 | 0.00 | 0.00 | 0.00 | 79 | 1010.9 |
| 20260505054446 | 54 | 0.0 | 1.0 | 0.00 | 0.00 | 0.00 | 79 | 1010.7 | |
| 20260505054341 | 54 | 0.0 | 1.0 | 0.00 | 0.00 | 0.00 | 79 | 1010.9 | |
| 20260505054217 | 54 | 0.0 | 0.0 | 0.00 | 0.00 | 0.00 | 79 | 1010.7 | |
| 20260505054149 | 54 | 0.0 | 1.0 | 0.00 | 0.00 | 0.00 | 80 | 1010.8 | |
| 20260505054024 | 54 | 0.0 | 1.0 | 0.00 | 0.00 | 0.00 | 80 | 1010.9 | |
| 20260505053940 | 53 | 0.0 | 1.0 | 0.00 | 0.00 | 0.00 | 80 | 1010.8 | |
| 20260505053816 | 53 | 0.0 | 1.0 | 0.00 | 0.00 | 0.00 | 80 | 1010.7 | |
| 20260505053727 | 53 | 129 | 0.0 | 1.0 | 0.00 | 0.00 | 0.00 | 80 | 1010.7 |
| 20260505053623 | 53 | 123 | 1.0 | 2.0 | 0.00 | 0.00 | 0.00 | 80 | 1010.6 |
| 20260505053518 | 53 | 0.0 | 1.0 | 0.00 | 0.00 | 0.00 | 80 | 1010.8 | |
| 20260505053430 | 53 | 127 | 1.0 | 2.0 | 0.00 | 0.00 | 0.00 | 80 | 1010.9 |
| 20260505053326 | 53 | 115 | 0.0 | 2.0 | 0.00 | 0.00 | 0.00 | 80 | 1010.7 |
| 20260505053242 | 53 | 126 | 1.0 | 1.0 | 0.00 | 0.00 | 0.00 | 80 | 1010.7 |
| 20260505053117 | 53 | 67 | 0.0 | 2.0 | 0.00 | 0.00 | 0.00 | 80 | 1010.8 |
| 20260505053029 | 53 | 147 | 1.0 | 1.0 | 0.00 | 0.00 | 0.00 | 80 | 1010.8 |
| 20260505052924 | 53 | 0.0 | 0.0 | 0.00 | 0.00 | 0.00 | 80 | 1010.8 | |
| 20260505052820 | 53 | 0.0 | 1.0 | 0.00 | 0.00 | 0.00 | 80 | 1010.7 | |
| 20260505052715 | 53 | 0.0 | 1.0 | 0.00 | 0.00 | 0.00 | 80 | 1010.9 | |
| 20260505052627 | 53 | 97 | 1.0 | 2.0 | 0.00 | 0.00 | 0.00 | 80 | 1011.0 |
| 20260505052522 | 53 | 141 | 1.0 | 2.0 | 0.00 | 0.00 | 0.00 | 80 | 1010.8 |
| 20260505052418 | 53 | 122 | 1.0 | 2.0 | 0.00 | 0.00 | 0.00 | 80 | 1010.7 |
| 20260505052330 | 53 | 131 | 1.0 | 2.0 | 0.00 | 0.00 | 0.00 | 79 | 1010.9 |
| 20260505052245 | 53 | 129 | 1.0 | 2.0 | 0.00 | 0.00 | 0.00 | 79 | 1011.0 |
| 20260505052121 | 53 | 100 | 1.0 | 2.0 | 0.00 | 0.00 | 0.00 | 79 | 1010.8 |
| 20260505052016 | 53 | 116 | 1.0 | 2.0 | 0.00 | 0.00 | 0.00 | 79 | 1011.0 |
| 20260505051928 | 53 | 0.0 | 1.0 | 0.00 | 0.00 | 0.00 | 79 | 1010.9 | |
| 20260505051824 | 53 | 138 | 0.0 | 1.0 | 0.00 | 0.00 | 0.00 | 79 | 1010.8 |
| 20260505051719 | 53 | 0.0 | 1.0 | 0.00 | 0.00 | 0.00 | 79 | 1010.9 | |
| 20260505051651 | 53 | 0.0 | 1.0 | 0.00 | 0.00 | 0.00 | 79 | 1010.9 | |
| 20260505051526 | 53 | 0.0 | 1.0 | 0.00 | 0.00 | 0.00 | 79 | 1011.0 | |
| 20260505051422 | 53 | 160 | 0.0 | 2.0 | 0.00 | 0.00 | 0.00 | 79 | 1011.1 |
| 20260505051318 | 53 | 126 | 1.0 | 2.0 | 0.00 | 0.00 | 0.00 | 78 | 1011.0 |
| 20260505051229 | 53 | 139 | 0.0 | 2.0 | 0.00 | 0.00 | 0.00 | 78 | 1010.9 |
| 20260505051125 | 53 | 144 | 1.0 | 2.0 | 0.00 | 0.00 | 0.00 | 78 | 1011.0 |
| 20260505051021 | 54 | 141 | 1.0 | 2.0 | 0.00 | 0.00 | 0.00 | 78 | 1010.9 |
| 20260505050915 | 54 | 138 | 1.0 | 2.0 | 0.00 | 0.00 | 0.00 | 78 | 1010.9 |
| 20260505050827 | 54 | 0.0 | 2.0 | 0.00 | 0.00 | 0.00 | 78 | 1010.9 | |
| 20260505050723 | 54 | 0.0 | 1.0 | 0.00 | 0.00 | 0.00 | 78 | 1010.9 | |
| 20260505050618 | 54 | 0.0 | 1.0 | 0.00 | 0.00 | 0.00 | 78 | 1011.1 | |
| 20260505050530 | 54 | 0.0 | 1.0 | 0.00 | 0.00 | 0.00 | 78 | 1011.0 | |
| 20260505050445 | 54 | 0.0 | 1.0 | 0.00 | 0.00 | 0.00 | 78 | 1010.9 | |
| 20260505050321 | 54 | 0.0 | 1.0 | 0.00 | 0.00 | 0.00 | 78 | 1011.0 | |
| 20260505050237 | 54 | 145 | 1.0 | 2.0 | 0.00 | 0.00 | 0.00 | 78 | 1010.9 |
| 20260505050128 | 54 | 142 | 1.0 | 2.0 | 0.00 | 0.00 | 0.00 | 77 | 1011.1 |